GFSCGP_sfc_wetblb_000.txt.gz
Wetbulb
50.66 44.96 42.00 43.91 44.69 45.89 45.78 43.93 42.52 44.45 46.37 44.74 42.75 41.90 45.01 47.03 48.20 46.57 45.46 45.90 46.52 47.53 50.10 51.75 53.76 55.83 56.91 57.06 54.80 55.13 53.75 54.82 55.93 54.98 54.30 55.37 55.30 56.53 57.97 59.80 60.56 60.86 61.84 62.82
47.11 42.99 47.48 48.41 47.62 46.09 45.27 43.07 42.55 44.87 46.37 43.77 42.62 42.62 44.97 47.03 48.06 48.02 46.16 45.66 46.06 46.62 48.62 51.02 53.05 52.94 55.27 55.67 56.13 55.52 54.41 53.15 54.65 55.31 55.55 55.73 55.93 57.09 57.25 58.34 59.71 60.77 62.14 62.56
44.02 46.92 50.59 48.64 46.13 44.47 43.60 42.63 42.83 42.97 45.51 44.70 43.02 40.65 43.92 47.08 48.33 49.82 47.34 47.37 46.85 46.73 47.61 50.00 52.33 50.92 53.26 54.83 53.42 56.11 55.71 53.02 54.12 55.48 56.10 56.29 56.83 57.53 57.35 57.97 59.40 60.68 62.40 62.46
45.77 49.46 48.56 46.91 45.30 45.16 40.38 46.07 46.37 45.53 41.59 36.22 43.44 32.47 41.09 44.48 45.61 47.88 46.92 45.56 45.51 46.92 48.32 50.26 51.39 50.29 52.10 55.36 55.77 55.74 55.74 55.44 54.58 52.91 53.62 54.39 54.47 55.15 56.71 57.80 60.01 61.76 63.17 62.78
45.83 46.74 45.95 45.54 46.35 46.85 43.17 46.63 44.83 45.24 40.61 37.91 39.89 34.06 39.97 44.30 43.48 46.24 45.84 45.95 45.90 46.97 48.14 50.21 51.29 52.17 53.13 54.71 56.72 56.92 56.39 56.56 54.38 54.64 53.23 54.41 55.02 55.53 57.15 58.86 59.57 60.36 61.55 63.14
47.90 50.86 49.13 48.36 48.12 47.24 47.56 44.81 44.29 41.77 38.44 31.81 38.52 37.13 36.59 40.64 45.01 46.56 47.01 46.87 47.24 47.23 48.06 50.44 52.13 52.86 53.31 52.84 56.93 56.38 55.57 56.04 57.40 55.58 54.13 54.17 55.13 55.83 56.70 56.17 55.91 55.65 58.01 60.39
46.14 46.94 49.57 47.85 43.67 45.83 44.86 39.67 32.94 29.91 29.59 29.86 40.92 37.63 40.67 45.17 47.16 49.45 47.16 46.83 47.37 48.41 47.02 49.71 50.83 50.69 52.35 52.96 54.81 56.48 56.11 55.27 55.56 57.37 55.53 53.58 53.23 53.27 53.35 53.47 54.51 55.44 55.92 57.87
40.44 38.90 46.66 49.14 44.59 42.20 41.42 40.62 34.05 28.11 28.26 35.23 43.77 36.97 40.58 49.82 49.93 51.44 50.64 48.38 48.00 46.70 48.19 49.51 50.24 50.61 52.53 53.85 53.65 56.17 55.48 54.29 54.37 55.09 54.38 54.69 55.64 55.38 54.26 54.07 53.53 54.10 55.03 56.03
39.54 41.02 48.73 48.82 47.98 46.27 41.54 39.04 43.07 37.27 38.20 34.71 39.25 45.74 49.21 50.41 49.63 50.21 48.24 47.23 46.71 46.77 48.64 48.99 49.79 50.92 50.61 53.57 53.26 54.67 54.83 53.15 53.87 54.28 53.27 53.01 54.17 54.62 54.50 54.50 54.25 53.45 54.79 57.18
44.06 39.70 46.47 49.11 50.81 49.82 44.24 46.04 38.55 35.82 29.22 28.99 35.91 43.16 40.91 46.35 47.12 48.14 46.57 46.45 46.61 47.07 48.93 48.62 50.26 50.82 51.18 52.59 52.65 54.40 54.39 53.21 53.80 52.55 52.42 53.65 53.88 54.46 53.89 54.45 53.79 53.88 54.29 56.46
47.16 41.86 42.52 48.52 46.36 43.57 45.07 42.97 43.43 41.38 38.89 30.91 28.63 38.22 48.22 49.07 49.39 47.32 47.07 47.55 46.92 47.73 48.87 48.90 50.60 51.07 52.07 52.28 52.96 54.24 53.84 54.39 54.14 53.59 54.03 53.92 54.22 53.75 53.29 53.24 53.85 53.97 53.86 55.33
46.27 42.33 39.57 44.99 49.52 51.29 49.86 47.12 45.69 39.24 37.98 39.38 39.03 37.78 51.35 51.00 50.44 50.33 48.38 48.60 48.14 49.35 49.03 50.14 50.97 50.86 52.08 52.40 52.71 52.86 53.31 54.83 54.74 55.09 53.95 54.28 54.47 52.62 51.79 52.31 52.75 53.85 54.09 54.81
47.04 40.44 37.40 39.27 45.06 47.85 44.69 47.66 48.34 46.40 44.17 38.76 36.26 38.12 50.95 52.16 51.47 51.01 48.65 48.85 48.86 49.04 48.31 50.17 50.24 51.43 52.43 52.30 52.64 53.02 53.00 53.81 55.06 55.40 54.25 54.06 53.14 51.51 51.10 51.37 52.15 52.60 52.77 53.65
51.57 41.48 42.41 38.49 41.49 45.25 43.55 46.30 47.97 45.84 39.77 40.40 41.06 44.33 47.09 50.11 50.19 51.61 49.50 49.16 49.00 49.18 50.08 50.52 50.74 51.86 52.80 52.91 52.70 53.26 51.44 52.66 55.93 55.57 54.83 53.41 51.46 50.58 49.78 51.20 52.39 51.94 51.73 51.28
47.63 41.46 43.10 45.41 46.69 47.31 45.80 46.08 46.49 44.99 45.45 41.60 43.93 44.90 46.38 50.09 52.26 53.25 51.74 50.14 49.06 48.54 49.92 50.81 51.17 51.52 52.49 52.40 52.21 53.27 51.56 53.42 55.82 56.09 54.89 53.61 52.82 51.14 50.36 51.49 51.68 51.16 50.68 51.08
48.71 40.57 44.83 44.68 47.38 47.14 45.24 46.80 47.18 47.11 47.12 45.84 46.02 44.91 50.07 52.53 53.75 53.87 52.09 50.98 49.68 49.28 50.25 51.33 52.21 52.39 52.80 53.70 51.98 53.20 52.05 53.40 56.23 56.40 55.52 55.57 54.23 52.24 50.25 50.95 50.90 50.72 50.16 48.81
45.14 44.22 39.59 39.54 45.67 44.47 40.22 45.30 46.13 47.48 47.90 47.03 42.96 47.14 51.12 50.63 51.71 52.01 51.91 52.11 51.11 50.66 50.71 51.36 52.24 52.83 53.40 54.15 53.77 53.05 52.69 53.93 55.54 56.87 57.59 56.95 55.04 52.10 50.51 50.82 50.56 48.87 47.27 46.94
44.19 41.37 40.08 39.39 42.53 33.32 43.95 49.73 49.70 47.86 48.59 48.53 48.61 49.43 50.86 52.45 53.35 53.32 54.38 53.47 52.75 52.43 51.38 51.86 52.74 53.30 54.23 54.71 54.25 54.59 54.06 54.89 55.86 57.09 58.04 57.75 55.62 53.12 51.57 50.57 49.91 48.88 46.25 45.58
47.42 43.07 39.23 37.89 33.72 41.09 44.55 47.68 47.11 45.98 45.18 50.44 49.29 50.19 51.76 53.23 54.36 52.80 55.67 55.68 54.74 53.92 53.30 52.74 53.87 53.83 54.42 54.51 54.83 54.74 54.61 55.20 56.17 57.20 57.60 58.28 56.88 54.46 52.14 50.82 50.07 50.21 48.07 46.51
47.34 45.46 40.86 34.98 32.73 31.96 41.82 48.24 52.36 50.46 41.23 49.69 50.62 49.85 49.80 50.61 47.96 50.33 55.51 57.23 55.99 55.20 54.90 53.39 53.66 54.03 54.40 54.79 55.28 54.82 54.85 55.02 55.78 57.43 58.17 58.98 57.99 56.24 53.49 51.78 50.81 51.13 50.33 49.04
41.08 40.98 37.45 34.40 30.91 39.19 46.45 49.85 51.76 40.27 42.03 52.31 52.03 50.99 50.19 48.91 51.05 52.98 55.16 55.49 57.06 56.13 55.42 54.61 53.77 53.49 54.06 55.38 55.24 54.57 55.52 55.22 57.24 58.62 59.04 59.05 58.54 57.45 55.88 54.02 52.48 52.24 51.78 51.19
41.20 36.90 36.60 35.66 33.41 34.15 50.79 48.92 44.43 47.18 49.25 52.11 52.80 52.80 52.41 52.25 53.33 53.73 54.18 54.86 56.62 56.31 55.85 54.38 53.25 53.77 54.33 55.40 55.17 54.90 54.84 57.25 58.16 59.02 58.94 58.96 58.76 59.21 57.94 55.92 54.99 52.95 52.54 51.20
40.41 42.22 39.43 40.38 39.80 47.07 51.23 50.29 51.99 51.05 50.35 52.70 52.41 54.43 53.98 53.46 54.02 53.94 53.88 54.06 56.09 57.51 56.71 55.13 54.07 53.53 54.26 55.10 55.42 54.73 55.52 57.15 57.95 57.86 58.08 58.61 58.93 59.18 58.68 57.01 55.76 54.36 53.19 52.71
46.03 47.01 43.14 43.33 45.94 46.71 49.51 49.88 51.96 53.24 53.04 54.17 53.98 53.92 54.65 53.84 53.05 53.33 54.12 52.85 55.70 57.90 56.71 55.35 54.53 53.50 53.55 54.80 55.22 55.46 56.19 56.94 57.30 57.19 55.55 57.08 57.60 58.43 58.65 58.94 58.08 56.80 55.17 53.66
45.74 47.43 44.19 43.88 46.23 48.21 48.61 50.13 52.57 53.08 54.12 55.07 55.81 56.02 55.44 55.25 54.39 54.14 54.08 54.85 55.19 57.25 57.89 56.30 54.94 54.36 54.03 55.46 55.55 55.73 55.77 56.46 56.38 56.46 56.46 54.17 56.79 56.92 58.43 59.09 58.95 58.29 58.08 56.35
44.12 45.47 43.85 41.58 46.41 46.47 48.34 51.72 53.80 54.25 54.31 55.05 55.03 55.51 56.86 56.18 56.38 54.82 55.04 56.94 55.16 57.01 57.75 56.23 55.83 55.40 55.11 56.57 56.14 56.31 56.10 57.41 56.19 55.46 55.65 55.70 54.84 55.71 58.01 58.48 58.55 50.10 49.94 48.17

GFSCGP_sfc_wetblb_003.txt.gz
Wetbulb
48.52 43.88 41.11 43.94 44.88 45.15 44.46 42.76 41.99 44.12 46.02 43.90 42.35 42.33 44.06 46.59 45.42 44.77 44.45 44.62 45.59 46.81 49.30 51.32 53.35 54.96 55.32 55.55 53.25 53.19 51.49 52.40 53.79 54.23 53.74 54.72 55.31 56.30 56.92 57.62 58.98 60.01 61.09 61.68
44.71 41.12 46.41 47.47 46.58 44.87 43.28 41.34 40.62 43.46 45.73 43.23 42.48 42.13 43.44 45.69 46.15 45.08 44.49 44.41 45.19 45.60 47.67 50.31 51.39 52.47 53.22 53.86 54.50 53.73 52.10 52.38 53.23 53.99 54.30 54.34 55.21 56.58 56.78 57.80 59.15 61.11 61.75 62.07
43.73 46.56 49.11 46.91 45.13 43.50 42.64 40.63 41.00 41.39 44.23 43.05 40.74 39.08 41.97 45.02 46.54 46.62 45.37 45.63 45.64 45.82 46.71 48.98 50.29 49.50 52.87 52.00 52.54 54.55 53.21 51.34 51.65 54.32 55.18 55.86 56.28 57.30 58.33 58.73 58.95 59.85 61.48 62.06
45.20 47.87 47.55 45.21 44.24 44.26 39.43 44.94 44.43 43.77 40.07 34.80 41.70 31.15 39.09 42.29 43.99 45.55 44.63 43.89 44.50 45.55 47.10 48.94 49.08 48.32 52.01 53.00 53.89 53.95 54.01 52.52 52.44 51.64 55.01 54.00 54.13 55.11 56.98 59.01 59.31 60.58 61.48 61.97
45.05 45.08 44.62 44.09 45.31 46.27 43.46 46.71 43.94 42.96 39.21 35.68 37.92 32.71 38.27 41.84 41.10 44.17 43.72 44.53 44.04 45.32 46.81 48.86 49.02 50.03 51.02 54.34 54.56 54.36 54.12 53.73 53.32 52.78 55.05 55.82 56.30 56.50 58.26 58.91 59.31 58.97 60.77 61.71
47.03 49.03 47.42 47.22 48.25 47.58 48.46 42.55 42.03 39.31 36.36 29.90 36.71 35.37 35.02 39.57 42.77 44.64 44.76 45.47 45.28 45.28 46.46 49.34 49.82 50.30 50.47 51.68 54.70 53.88 53.79 54.88 53.69 53.44 54.75 55.69 55.28 55.28 54.79 54.31 56.32 57.76 59.56 61.32
44.28 44.95 47.16 48.33 43.82 44.38 42.17 37.02 30.73 28.60 28.84 29.26 38.87 35.93 37.84 43.63 45.85 47.30 46.68 45.59 45.60 46.22 45.82 48.39 48.65 49.36 50.05 51.13 54.29 54.25 53.91 53.12 54.32 53.13 53.87 54.26 53.58 52.30 53.23 53.34 54.47 55.72 57.60 59.79
38.76 38.14 44.98 47.53 44.78 42.62 39.94 39.04 31.78 26.63 26.85 33.79 40.26 35.18 40.83 46.41 49.85 48.46 49.91 47.45 46.30 45.28 45.40 48.08 48.97 49.19 50.39 51.36 53.05 54.86 54.04 52.75 53.18 53.01 52.96 53.30 53.27 52.70 52.16 52.04 52.76 53.84 56.50 59.59
39.11 40.00 46.74 47.30 46.68 44.52 40.16 37.07 40.63 35.38 35.27 32.57 35.91 41.09 47.14 47.81 48.54 47.77 45.47 45.64 45.33 45.64 45.50 48.43 48.86 48.96 49.74 50.95 51.73 54.62 53.69 52.03 52.31 52.32 52.16 52.63 53.42 53.29 52.24 52.49 52.30 52.73 54.62 58.78
42.66 37.44 44.58 47.13 46.90 46.11 42.41 43.68 36.18 33.76 27.99 27.06 33.32 37.27 39.15 44.83 46.40 47.13 44.38 43.96 45.17 45.33 46.68 47.73 48.35 48.73 49.27 51.13 51.51 53.72 53.53 51.43 52.49 51.25 51.21 52.29 52.19 52.97 52.81 52.27 52.20 53.02 54.35 54.95
43.22 40.30 40.32 45.25 43.48 41.84 41.48 40.03 39.82 37.34 35.07 29.54 26.54 34.30 45.50 46.66 47.66 47.37 45.88 45.63 45.66 46.07 47.55 48.18 47.70 49.28 49.49 50.35 50.97 53.00 52.51 51.48 51.38 50.29 51.43 52.19 52.21 52.09 52.41 52.32 52.36 52.73 53.24 54.65
44.07 40.09 37.12 42.12 46.87 48.72 44.20 42.35 41.23 35.36 33.90 36.44 34.95 36.28 47.20 48.47 51.26 49.34 47.26 46.90 46.90 47.67 48.47 48.26 48.23 48.95 48.94 50.15 51.26 52.62 52.40 52.14 51.60 52.10 52.18 52.14 51.55 50.78 50.96 51.58 51.94 52.27 53.00 53.42
43.60 37.84 34.67 37.25 43.13 45.83 43.13 45.95 44.98 42.44 40.85 37.31 35.52 37.36 48.45 50.82 49.02 48.96 46.49 47.16 47.23 47.43 46.66 46.86 47.65 48.45 49.90 50.05 51.49 52.14 52.29 52.77 52.87 53.20 52.56 52.16 50.62 49.64 49.39 50.22 51.28 52.12 52.73 52.67
48.91 39.23 39.73 36.28 39.42 43.67 41.59 45.04 45.67 42.71 36.97 39.49 39.83 42.00 45.47 48.65 49.18 50.11 46.77 46.23 46.81 47.83 48.19 48.48 48.59 48.88 50.42 50.77 51.64 52.27 51.81 52.69 53.66 53.45 52.40 51.65 49.88 49.17 49.17 50.26 50.84 51.08 51.58 51.53
44.69 39.66 41.16 43.41 44.61 45.71 44.15 44.66 45.37 42.24 42.37 40.47 43.20 42.38 46.87 49.29 49.24 51.89 48.57 46.17 46.80 46.97 47.88 48.90 49.27 49.51 50.81 50.09 50.93 52.26 51.26 51.58 53.83 53.54 52.98 51.45 49.75 48.70 49.24 50.00 49.56 49.58 49.95 50.44
43.28 38.47 43.03 41.80 44.05 45.28 44.03 45.13 46.29 45.45 44.57 43.47 44.49 43.73 50.81 51.89 52.68 51.19 49.91 47.60 47.21 47.61 48.91 49.72 50.68 50.75 51.37 51.94 50.70 51.52 50.19 51.62 53.90 53.56 53.22 52.48 50.55 49.54 49.56 49.51 48.58 48.63 48.29 48.00
43.07 40.00 39.01 37.25 43.29 43.75 39.35 43.91 44.83 45.18 46.51 45.63 41.38 47.03 49.87 50.10 51.58 51.48 52.36 49.44 48.43 48.78 49.33 50.20 50.93 51.42 52.42 52.93 51.96 50.10 49.62 51.90 53.91 53.89 54.20 53.93 52.02 50.01 49.46 49.55 48.93 47.12 45.60 45.27
43.51 41.42 40.76 38.64 41.09 33.44 43.46 49.24 48.86 47.28 47.16 46.62 46.71 47.86 49.20 50.24 51.98 53.53 52.20 50.88 50.51 50.21 50.04 51.05 51.92 52.22 52.78 53.66 51.30 51.06 49.91 52.46 54.33 54.40 55.15 54.81 52.18 49.77 49.40 48.84 47.92 45.81 44.63 44.18
46.22 42.13 38.39 39.05 32.44 39.94 43.27 46.58 45.97 44.61 44.67 49.02 48.22 48.49 49.69 50.62 50.63 50.54 54.27 53.66 52.95 51.95 51.62 52.00 53.11 53.11 53.09 53.27 52.36 51.50 50.42 52.18 54.21 54.91 55.67 55.44 52.88 49.89 49.26 48.52 47.21 46.19 44.64 43.78
45.13 44.25 41.81 33.76 33.32 34.26 41.02 47.53 50.71 48.82 39.97 49.17 49.84 48.66 48.56 49.33 44.43 50.02 53.75 54.70 54.42 54.18 53.27 52.17 53.12 53.48 53.24 53.31 52.96 52.14 50.80 51.90 53.20 55.30 56.30 56.48 54.06 51.26 49.59 48.52 47.81 47.77 45.38 44.97
40.02 39.36 38.18 33.35 31.67 37.90 45.11 49.44 50.07 38.63 40.83 49.06 50.97 50.43 48.39 47.64 50.24 52.38 52.43 54.38 54.56 54.10 53.72 52.40 52.73 52.78 53.65 53.96 53.32 52.49 51.82 51.70 54.15 56.33 57.05 57.04 55.50 52.94 50.84 49.04 48.80 49.36 47.54 46.32
39.24 36.27 36.12 35.87 32.58 34.10 48.70 48.48 44.24 46.77 49.00 51.39 50.51 49.25 49.97 51.25 51.52 52.31 53.76 52.45 53.88 53.12 53.27 52.21 52.04 52.63 53.73 54.32 53.90 52.97 52.38 53.70 54.66 56.11 56.84 57.02 56.21 55.99 53.27 50.59 49.56 49.94 49.05 47.61
40.27 41.60 38.24 39.61 39.18 45.54 50.55 49.79 51.24 48.79 49.26 50.58 50.75 51.56 52.10 51.60 51.68 52.80 53.66 53.61 54.06 54.41 54.55 53.69 52.66 52.56 52.86 54.37 54.54 53.52 54.05 54.69 54.75 55.64 56.01 56.50 57.00 56.92 55.32 52.20 50.42 49.66 49.71 49.41
44.83 46.14 42.32 42.24 44.50 45.81 49.92 50.38 49.82 49.97 49.67 52.33 51.72 51.98 52.80 52.06 52.96 52.86 53.08 53.57 54.42 53.63 54.78 54.30 52.49 51.91 51.92 53.85 54.71 55.24 55.45 55.83 55.26 55.23 55.88 56.45 56.57 56.57 56.44 55.72 54.34 52.95 51.62 50.95
45.77 45.84 42.71 42.38 43.91 46.30 46.89 50.16 49.89 51.09 52.67 53.43 53.70 54.16 53.85 52.69 53.47 53.43 53.66 52.92 53.50 52.74 55.08 55.64 53.18 52.42 52.66 53.57 54.43 55.50 55.86 56.23 55.46 55.51 56.08 56.33 56.77 55.54 56.74 56.79 56.06 55.34 54.89 53.17
46.06 45.47 43.89 41.93 45.62 46.27 46.91 48.86 50.81 50.85 51.31 53.00 53.16 53.77 55.30 54.85 54.01 52.25 52.24 53.69 54.38 54.22 54.58 53.56 54.53 53.73 53.21 53.61 54.30 55.00 55.88 55.86 55.86 55.44 55.89 56.30 56.65 56.23 57.10 56.75 56.50 48.30 47.80 46.48

GFSCGP_sfc_wetblb_006.txt.gz
Wetbulb
46.56 42.90 39.77 41.87 43.57 44.54 43.42 41.32 40.93 43.75 45.65 42.83 41.90 42.07 45.11 45.29 44.62 43.89 43.55 43.90 44.76 46.06 48.70 50.88 53.05 54.10 54.42 54.41 53.17 52.84 52.17 52.81 53.31 54.90 54.78 55.13 55.55 56.77 57.73 59.20 60.37 60.60 61.31 60.71
43.59 41.14 44.61 45.98 45.14 43.62 41.88 39.85 39.37 42.37 44.34 42.14 42.02 41.45 42.95 44.47 45.01 45.24 43.79 43.48 44.34 45.40 47.38 50.28 51.85 52.86 52.77 52.54 53.93 53.54 52.94 53.29 53.74 54.56 55.05 55.07 56.29 58.12 58.72 59.68 60.50 61.35 61.65 62.13
41.87 44.12 47.59 46.02 44.11 42.59 41.32 39.30 39.47 40.35 42.31 41.68 39.58 38.11 40.35 43.57 44.29 45.49 44.24 44.95 45.06 45.38 46.33 48.46 50.24 50.49 52.40 51.35 51.68 54.29 53.51 52.15 51.62 54.11 56.21 56.81 58.05 58.90 59.30 59.40 59.58 60.83 62.18 62.12
43.48 46.67 46.33 43.72 43.39 43.71 38.55 44.26 43.53 42.07 38.82 33.77 39.95 30.15 38.12 41.08 42.32 44.47 43.05 42.83 44.41 44.92 46.80 48.12 48.94 48.44 51.87 52.35 53.25 53.27 53.41 52.82 53.89 53.78 56.66 56.35 56.31 57.13 58.60 59.65 60.15 60.83 61.46 62.24
44.32 43.66 43.42 42.67 44.17 44.82 42.53 45.29 42.92 41.83 37.51 34.31 36.19 31.20 36.67 40.62 41.58 42.67 43.28 43.03 43.69 44.70 46.43 47.96 48.49 49.35 51.28 53.63 53.32 53.62 54.12 54.24 54.13 55.19 57.43 57.92 57.25 57.81 58.98 58.96 59.21 59.92 61.18 62.28
46.10 47.65 46.49 45.99 47.00 46.41 46.81 42.15 39.91 37.73 34.89 28.40 35.45 34.03 33.71 37.65 42.06 43.36 43.82 43.74 44.20 44.55 46.10 48.32 49.13 49.29 50.10 52.72 53.73 52.94 54.41 54.66 54.00 55.40 56.95 56.51 54.99 55.03 55.97 57.37 57.83 59.24 60.33 61.78
42.52 43.00 45.80 47.82 43.57 43.15 41.63 36.23 29.87 27.55 27.35 28.26 36.57 34.20 36.81 42.88 44.70 45.54 45.55 44.00 44.28 45.32 45.31 47.54 47.90 48.00 49.18 51.44 53.57 53.23 53.79 53.95 53.95 54.90 55.87 55.83 53.81 54.34 55.06 55.55 57.99 58.62 59.65 60.91
37.74 37.05 43.90 46.18 44.56 41.56 38.67 37.43 31.12 25.33 25.02 29.88 37.28 33.29 39.09 44.81 47.54 48.13 47.85 45.85 44.93 44.65 45.54 47.34 48.01 48.37 49.43 51.12 53.55 54.18 53.47 53.42 53.27 53.59 54.43 54.19 54.22 53.55 52.99 54.58 57.81 58.37 59.83 60.67
37.29 38.27 44.99 46.11 45.99 45.51 39.02 35.61 38.75 33.31 32.87 30.54 33.43 38.68 44.53 46.89 47.08 46.54 44.00 44.28 44.05 44.53 44.67 47.37 48.10 48.53 49.15 50.17 51.99 54.20 54.19 52.76 52.95 53.26 53.72 54.44 54.25 53.76 53.53 53.72 55.28 57.81 59.75 61.45
41.18 36.33 43.41 45.86 45.19 43.33 42.96 43.12 34.89 32.10 26.78 25.65 31.19 34.65 36.99 42.26 44.96 46.17 44.61 42.70 43.74 44.59 44.69 46.81 48.01 48.56 49.00 50.31 51.28 54.36 54.51 52.62 52.87 52.41 52.78 53.54 53.63 53.91 53.40 53.41 54.48 56.73 56.76 58.00
41.67 39.76 38.96 43.26 41.37 39.83 39.13 37.72 37.81 35.51 32.90 27.69 24.71 31.97 41.58 44.33 47.84 47.78 46.19 43.95 44.22 45.07 45.85 46.86 47.97 48.53 49.13 49.54 50.76 53.44 53.93 52.06 52.30 51.42 52.37 53.27 53.28 53.53 53.51 53.36 53.66 55.04 56.02 56.71
42.61 39.14 35.73 40.68 43.11 46.28 43.33 40.41 40.20 33.42 31.73 33.73 32.07 34.03 45.38 47.38 49.51 50.67 48.97 45.17 44.44 45.83 46.84 47.29 48.14 47.96 48.22 49.22 50.38 52.61 53.37 51.99 51.62 51.28 52.47 52.81 52.82 52.61 52.97 53.29 53.49 54.24 55.03 56.15
42.39 35.98 31.73 33.53 41.25 44.01 42.34 43.29 40.86 39.55 37.42 35.28 33.51 34.97 46.27 48.70 48.68 50.25 48.47 44.88 45.15 45.66 45.90 46.44 46.79 47.42 48.39 49.18 50.83 52.28 52.72 52.18 52.24 52.55 52.65 52.25 51.58 51.72 52.02 52.79 53.20 53.76 54.61 55.27
47.83 37.16 37.18 35.34 36.12 42.40 40.14 43.60 43.19 40.67 34.69 36.13 37.26 40.08 44.17 47.76 48.50 49.42 46.79 45.34 45.11 45.88 47.10 47.11 46.96 47.22 48.49 49.92 51.01 52.60 52.57 52.73 53.12 53.50 52.88 52.06 50.72 51.12 51.38 52.29 52.95 53.55 54.08 54.45
42.19 36.07 37.75 39.20 41.47 43.37 43.01 43.11 43.38 40.58 40.99 38.35 40.40 41.30 45.24 46.31 48.72 50.35 47.31 45.14 44.85 45.19 46.52 47.66 48.21 48.06 48.19 49.38 50.71 52.69 52.65 52.86 53.62 53.53 52.87 52.50 50.87 50.60 51.33 51.84 51.83 52.48 53.04 53.84
41.05 36.14 38.03 37.10 41.29 41.27 40.77 42.93 44.69 44.54 42.10 41.89 42.61 41.36 47.69 49.38 50.91 51.38 48.69 45.95 45.82 46.30 47.63 48.56 49.35 49.26 49.08 50.55 50.76 52.27 51.76 52.21 53.79 53.56 53.08 52.89 50.50 50.29 51.06 50.89 50.57 51.35 51.12 51.71
37.90 38.59 35.61 31.87 40.60 40.07 36.95 41.44 43.78 44.36 44.22 43.91 40.87 44.49 47.52 48.18 49.97 50.19 50.37 47.22 46.93 47.55 48.36 48.90 49.72 50.43 51.30 51.42 51.93 51.45 51.05 52.01 53.53 53.64 53.89 52.96 51.24 50.48 50.87 50.33 49.91 49.38 49.41 50.00
37.76 38.34 37.70 35.91 38.79 30.43 40.31 46.62 47.53 46.30 46.14 45.39 45.35 46.62 48.28 48.51 50.35 52.12 51.99 48.68 47.90 48.43 49.17 49.79 50.65 51.12 51.90 52.10 51.03 51.54 50.37 52.36 53.43 53.50 54.24 53.68 51.64 50.16 50.55 50.18 49.14 47.84 47.82 48.72
42.33 39.99 36.48 35.36 31.33 38.40 41.57 44.69 44.29 43.78 43.78 47.45 47.33 46.96 48.38 49.44 50.07 50.30 53.54 52.73 51.62 50.26 50.73 51.10 52.08 52.13 52.25 52.39 52.47 51.06 49.95 52.25 53.43 53.83 54.50 54.42 51.98 50.01 50.20 49.69 48.36 47.41 46.79 46.51
43.45 42.94 39.47 32.20 32.34 32.32 40.07 46.77 49.22 47.81 39.88 47.65 49.36 46.86 47.78 48.62 44.50 49.42 52.31 53.23 52.80 52.43 51.77 51.33 52.10 52.38 52.27 52.71 52.19 50.65 49.88 51.80 53.12 54.37 55.37 55.52 52.90 50.67 50.12 49.96 48.57 48.63 47.76 47.78
37.45 37.18 37.75 31.90 30.53 36.49 44.18 47.92 49.41 39.20 40.93 48.47 49.82 49.43 46.99 47.90 51.41 52.01 53.11 53.72 53.80 53.87 51.99 52.04 52.20 51.91 52.50 53.13 52.67 51.09 50.41 50.99 53.65 55.74 56.30 55.96 53.77 51.17 50.80 49.82 49.37 49.57 48.52 48.24
37.85 35.08 35.28 32.66 31.88 33.09 47.01 47.07 44.36 46.47 47.85 49.92 49.45 49.29 49.24 51.48 50.80 51.77 52.55 53.70 54.39 52.83 51.99 51.92 51.66 52.08 52.92 53.24 53.06 52.19 50.54 52.73 53.79 55.58 56.27 56.14 54.45 53.54 51.41 50.06 49.73 50.35 48.92 47.98
38.65 40.71 38.70 39.30 38.75 44.30 49.41 48.72 50.40 48.61 49.22 49.54 48.75 49.11 51.03 51.18 50.61 51.63 51.54 52.73 52.76 52.75 52.27 51.81 51.70 51.93 52.63 53.30 53.90 52.97 52.87 52.97 53.61 54.97 55.38 55.98 55.43 54.77 52.30 50.25 49.57 50.11 49.79 48.85
42.58 43.76 40.95 41.33 43.86 45.11 48.51 49.00 49.53 49.38 50.20 51.42 50.76 51.25 50.91 50.58 51.27 51.78 51.92 52.23 52.73 53.11 53.04 52.57 51.79 51.59 51.55 53.33 54.05 54.58 54.47 53.99 53.93 54.14 54.93 55.83 55.79 55.07 53.76 52.59 51.26 51.26 50.51 49.90
43.39 44.36 41.25 41.13 43.14 45.31 47.31 50.10 49.42 50.36 51.11 52.20 52.45 52.31 52.18 51.98 52.34 52.83 52.86 53.07 53.36 53.01 53.92 53.50 51.79 51.77 52.15 53.55 54.06 55.02 54.98 54.63 53.67 54.20 54.86 55.28 56.00 55.03 55.35 54.58 52.77 52.22 52.76 51.96
43.64 42.20 42.76 41.23 44.11 45.67 46.80 50.47 50.59 50.36 51.36 52.30 52.71 52.92 53.86 53.24 52.84 53.71 52.75 53.02 53.78 53.94 53.02 53.60 52.65 52.30 52.82 53.15 54.14 54.76 55.47 55.32 54.37 53.90 54.49 54.94 55.67 55.40 56.39 55.79 55.17 46.34 45.59 44.63

GFSCGP_sfc_wetblb_009.txt.gz
Wetbulb
52.20 49.25 47.03 49.20 49.58 48.97 48.49 46.53 45.53 47.33 49.67 47.39 47.63 47.83 49.43 51.46 50.25 50.30 50.59 50.57 51.29 52.22 55.22 57.09 58.88 59.94 60.29 61.34 61.41 60.52 61.18 60.74 60.46 61.39 60.99 61.01 60.96 61.69 63.50 62.30 61.60 62.65 63.96 62.73
48.49 47.21 51.01 51.05 49.54 48.01 47.12 45.67 45.65 47.90 48.36 47.72 48.11 47.24 50.16 50.69 50.66 51.60 51.75 50.87 51.32 52.39 53.56 55.74 58.09 59.50 60.12 59.77 59.80 61.09 60.35 59.90 59.17 60.76 62.29 59.41 60.94 62.26 61.85 61.32 61.85 63.25 62.98 62.84
48.28 49.94 50.30 49.33 47.71 46.68 46.96 46.05 46.01 46.02 46.86 47.63 46.14 45.43 48.34 50.90 50.09 50.71 51.97 52.77 52.35 52.41 53.00 55.22 56.84 58.54 59.73 59.10 58.17 60.33 60.80 60.23 60.32 61.92 62.26 61.50 63.70 62.13 61.36 61.32 62.18 62.13 63.41 62.94
49.88 50.50 48.91 48.12 47.71 48.61 45.35 48.93 47.93 46.63 44.93 41.98 46.41 39.84 46.37 49.59 50.14 50.64 51.52 50.79 51.34 52.11 53.85 55.51 56.69 57.38 59.39 59.44 59.14 58.93 60.12 60.99 60.81 62.91 63.12 61.90 61.91 59.85 61.30 61.94 63.16 62.74 63.59 63.19
48.11 47.69 47.90 47.21 48.21 49.50 47.55 49.32 47.92 46.85 45.35 43.41 43.27 40.91 44.90 47.25 48.15 51.19 53.76 51.57 51.47 52.57 53.56 54.69 56.17 56.89 59.29 59.97 60.41 61.13 60.85 60.90 61.32 62.95 63.28 61.83 61.47 62.51 63.17 63.37 63.10 64.01 64.82 63.24
50.80 51.63 51.21 50.49 50.79 50.27 50.91 47.53 45.77 44.88 44.04 39.19 43.55 42.35 43.57 46.34 49.15 51.37 52.87 52.02 51.09 52.10 53.27 55.36 57.02 57.09 58.32 60.27 60.39 60.80 61.41 60.33 60.80 62.31 62.63 61.65 60.74 62.00 60.17 62.34 61.54 61.97 62.56 65.07
47.91 48.88 50.49 51.86 48.81 48.84 49.10 46.42 40.28 38.47 38.95 37.88 42.49 41.15 44.86 50.36 51.89 51.33 52.22 52.86 51.41 52.02 53.00 54.72 55.42 55.39 57.18 59.14 60.10 60.19 60.47 59.73 60.17 61.31 62.51 61.08 60.47 61.39 60.76 59.61 60.10 61.04 62.10 62.67
43.12 41.42 47.88 50.37 49.82 47.40 47.17 47.29 40.93 33.76 35.65 39.13 42.10 39.96 44.66 51.65 52.97 53.66 53.33 53.41 51.75 51.51 53.25 54.78 55.74 56.42 56.98 58.45 60.08 60.01 59.58 59.69 59.41 60.27 61.81 61.13 61.29 59.91 60.52 61.51 60.44 61.67 62.53 62.39
43.43 43.24 49.17 49.89 50.94 50.70 44.91 43.39 48.30 43.32 41.01 39.38 42.41 45.15 50.04 52.32 53.24 52.11 50.60 50.02 49.89 51.58 52.96 54.63 55.99 56.85 57.48 58.37 60.37 60.78 60.65 59.84 59.41 59.56 61.37 61.15 60.92 60.71 60.23 62.28 61.52 63.50 62.71 63.28
47.03 42.45 47.93 49.29 50.65 49.36 48.59 48.93 42.15 42.75 35.47 34.25 39.56 41.11 43.57 48.84 51.18 52.86 50.39 50.00 50.42 51.88 52.84 54.61 55.94 56.67 57.82 59.23 59.66 61.17 61.86 60.15 59.36 59.63 60.49 60.29 59.92 60.10 60.88 61.86 61.44 62.62 62.23 61.18
49.56 47.34 44.16 47.50 46.79 46.28 45.44 44.94 45.08 44.79 42.46 37.94 36.52 40.96 50.67 50.99 54.06 55.17 54.60 52.43 51.20 51.70 52.71 54.29 55.87 57.00 57.88 58.70 58.66 59.95 61.38 59.94 59.96 59.69 59.92 60.71 59.69 59.65 60.82 60.64 61.20 60.36 61.48 61.30
49.53 48.05 43.10 44.39 48.57 51.33 49.72 47.24 47.60 41.89 40.51 42.17 41.61 41.89 51.76 54.19 55.61 56.44 54.82 52.56 52.32 52.85 53.29 54.49 55.98 56.70 56.97 57.45 58.34 59.20 61.32 60.14 59.94 59.52 59.46 60.09 59.61 59.55 60.48 60.48 61.11 62.06 62.19 62.58
48.71 47.08 41.19 41.72 46.74 49.43 46.40 47.46 48.73 47.91 46.99 42.56 39.88 42.58 52.24 54.44 55.27 55.47 54.11 52.45 51.45 52.37 52.85 53.97 55.27 55.79 56.47 57.09 57.64 58.91 60.70 60.22 58.77 58.62 59.07 59.26 59.04 59.44 59.82 60.34 60.26 61.76 62.31 62.37
51.12 47.76 44.65 39.96 42.95 47.40 45.66 46.62 47.24 47.21 43.06 43.15 43.45 45.47 49.93 52.67 54.25 54.51 54.82 53.63 52.66 52.23 52.65 53.77 54.46 55.53 56.67 57.05 57.68 58.81 60.07 60.04 58.54 58.48 58.67 58.51 58.87 59.01 59.66 60.22 60.68 61.12 61.91 61.90
50.26 44.29 45.64 46.59 46.77 47.60 46.87 46.95 47.81 45.70 46.66 43.44 45.92 46.40 50.21 53.33 54.76 56.67 56.42 53.41 51.83 51.95 52.85 53.75 54.28 55.28 56.53 57.00 57.78 59.15 60.24 59.66 59.33 58.82 58.90 58.97 58.36 58.36 58.79 59.67 60.16 60.46 61.53 61.50
46.87 44.57 45.50 43.53 45.58 46.12 44.54 46.31 47.69 47.98 47.68 47.58 47.80 47.77 54.26 55.49 56.80 55.99 54.63 52.34 51.91 52.58 53.15 54.12 54.81 55.51 55.95 56.87 57.40 58.71 59.78 59.73 59.78 59.32 59.11 59.19 57.50 57.52 58.35 58.57 59.32 59.87 60.20 60.36
45.48 45.69 42.82 40.33 44.31 44.29 40.84 44.98 45.98 47.80 49.38 48.64 45.50 50.05 54.12 53.87 55.18 56.72 55.91 53.77 53.78 54.27 54.20 54.46 55.09 55.59 56.32 57.28 58.28 58.45 59.69 60.31 59.66 59.58 59.55 58.91 57.66 56.96 58.05 58.05 58.34 58.66 59.90 60.46
45.30 46.07 44.93 41.86 43.24 35.38 45.78 50.36 48.98 47.95 49.55 51.22 51.15 52.39 54.29 55.17 57.43 58.41 58.94 56.12 55.99 55.51 55.26 55.45 55.89 56.91 57.60 58.23 58.82 59.63 59.86 59.28 59.27 59.59 59.18 58.74 57.28 57.23 57.97 57.61 58.40 58.63 58.66 59.86
44.60 44.56 43.98 41.70 40.47 43.47 45.55 48.31 47.33 46.94 47.43 52.51 51.94 53.15 54.46 55.52 56.35 56.08 58.60 59.14 58.82 57.25 57.52 57.44 57.30 57.86 58.20 58.03 58.93 59.31 58.64 58.71 59.01 59.26 59.31 58.83 57.27 57.29 57.72 57.49 57.46 57.80 57.60 57.52
45.42 46.48 42.70 42.38 39.13 36.43 46.48 51.68 52.94 52.97 44.97 53.79 53.94 54.44 54.18 54.87 50.90 54.06 59.23 59.60 59.29 58.94 58.49 57.97 57.66 57.72 58.12 58.66 59.45 58.63 58.19 58.39 58.48 59.01 59.43 59.72 58.20 57.36 57.39 58.61 57.42 57.17 57.60 57.75
40.06 41.71 38.88 38.86 39.56 43.67 49.95 53.20 53.69 43.77 47.00 56.04 55.47 56.24 55.27 53.92 56.46 59.94 60.15 60.00 61.04 60.58 58.12 58.82 57.50 57.24 58.32 59.66 59.56 58.27 58.44 57.80 59.49 59.73 60.08 60.25 59.04 57.89 58.71 59.06 58.19 57.36 56.80 56.77
40.15 38.74 38.72 41.25 38.09 36.07 51.54 51.82 48.66 54.96 56.06 56.42 56.54 57.05 55.92 58.26 58.84 58.25 59.00 59.69 59.59 59.37 58.16 57.65 56.62 57.04 58.89 59.31 59.44 58.63 58.64 59.86 59.97 60.01 59.87 60.50 60.01 57.69 57.81 58.45 57.90 57.98 57.46 56.83
39.98 43.64 42.01 43.78 43.28 52.25 54.31 55.56 57.76 58.37 57.62 55.37 57.38 57.82 57.57 57.82 57.47 57.64 58.28 58.83 59.57 60.16 59.22 57.78 57.25 57.51 58.09 58.81 59.56 59.07 59.57 59.70 59.36 59.69 59.80 60.65 60.84 59.34 57.81 57.83 57.65 56.97 57.55 56.50
43.35 49.68 46.09 46.72 48.75 50.91 53.43 55.91 56.81 55.80 55.97 56.52 58.16 57.89 57.61 57.42 57.62 57.90 57.90 58.44 59.16 60.08 58.84 58.01 57.42 57.21 56.94 58.33 59.33 60.13 59.86 59.61 58.87 59.22 60.08 60.82 60.40 59.66 59.06 57.75 57.74 57.20 56.82 56.40
42.73 47.29 47.57 47.92 50.76 50.89 52.62 55.45 55.98 55.63 56.23 57.04 57.45 58.07 58.06 58.07 57.77 58.00 58.24 58.72 59.03 59.79 59.42 57.98 57.23 57.46 57.57 58.00 58.41 59.70 60.15 59.78 59.54 60.27 60.31 60.44 60.55 59.73 59.79 59.14 57.94 57.05 59.96 56.96
46.87 44.77 44.57 45.66 51.79 52.77 54.08 55.81 56.65 55.69 55.43 57.11 57.51 57.41 58.52 58.66 58.61 59.21 59.26 59.76 59.86 59.49 59.96 59.30 57.95 57.72 58.10 58.22 58.33 58.93 59.73 60.03 59.94 59.67 59.93 60.07 59.81 59.94 59.98 59.17 58.55 46.98 45.99 44.41

GFSCGP_sfc_wetblb_012.txt.gz
Wetbulb
55.46 51.66 49.50 51.80 53.51 52.66 51.35 50.13 49.38 51.66 53.13 51.54 51.61 51.05 52.70 54.75 54.83 55.14 55.86 56.46 56.34 56.71 58.55 59.79 60.94 61.93 60.79 60.33 60.58 63.35 63.06 63.93 63.63 64.66 63.79 64.01 63.38 62.16 63.34 63.46 63.35 63.02 65.44 65.56
52.40 49.38 53.38 54.32 53.85 52.08 51.14 49.72 49.75 51.68 53.04 51.13 50.84 50.31 52.96 54.20 54.64 56.03 56.19 56.84 56.80 57.25 57.59 58.72 60.51 61.47 60.87 59.27 59.35 62.58 62.86 63.29 64.36 64.94 64.60 64.56 64.08 63.17 64.24 62.67 64.16 64.42 64.52 64.99
50.03 51.66 54.75 53.38 52.19 50.44 50.72 49.75 49.93 49.40 51.85 52.06 50.60 49.21 51.21 53.16 54.93 55.92 56.72 57.66 58.05 57.45 57.19 58.07 59.40 60.76 60.91 59.86 59.47 61.24 62.57 63.87 65.52 66.82 67.41 66.78 65.69 64.44 64.95 62.46 62.89 64.75 64.85 65.36
51.53 53.92 52.85 52.11 51.16 51.51 48.62 52.31 51.19 50.09 48.68 44.83 50.52 43.14 49.57 51.58 52.24 53.77 55.93 56.99 57.42 57.59 57.98 58.65 59.51 60.29 60.47 60.52 61.14 61.27 63.04 64.18 65.51 66.64 65.10 65.03 64.28 62.61 63.93 65.33 63.22 62.45 65.38 64.31
50.60 52.04 51.47 50.58 51.23 52.64 49.97 52.87 51.39 50.79 48.82 48.19 47.64 45.29 48.12 50.77 49.98 52.02 54.42 57.21 57.89 57.95 57.98 58.38 59.25 59.97 60.05 61.53 61.49 63.62 63.32 63.41 65.81 66.26 65.27 64.20 65.27 63.30 66.29 64.74 64.52 62.99 63.79 63.88
52.30 55.58 54.22 53.06 53.33 53.04 53.46 51.00 50.77 50.38 48.53 42.83 46.80 45.93 45.72 48.75 49.82 52.56 54.81 57.00 57.30 57.39 57.80 58.73 60.16 60.02 59.54 61.71 61.51 62.54 63.01 62.81 64.39 65.59 65.19 64.30 64.53 64.16 63.22 63.73 63.47 62.94 64.78 62.78
50.39 51.34 54.03 54.48 51.23 53.07 52.10 49.40 43.15 41.76 42.14 40.89 47.56 44.68 46.97 51.06 52.32 54.03 55.50 57.70 57.85 57.55 57.55 58.08 58.75 58.58 59.13 60.59 61.06 61.90 61.30 62.10 63.10 64.52 64.26 63.99 64.30 64.40 61.46 61.52 63.89 62.23 62.46 64.24
45.73 44.23 51.27 53.58 51.44 49.60 50.00 49.59 44.15 37.55 39.65 42.70 46.91 42.86 48.23 52.51 55.68 57.22 57.67 58.11 58.39 57.26 57.59 58.29 59.02 59.02 58.71 60.28 61.30 61.55 61.22 61.68 62.06 63.54 63.44 64.18 64.38 63.47 62.25 62.23 64.38 62.56 63.40 64.25
46.38 46.50 52.72 53.39 53.27 52.51 49.65 47.07 51.42 46.37 47.07 43.14 45.45 47.76 51.82 53.04 53.94 56.22 56.80 55.91 56.75 57.06 57.73 58.31 59.34 59.46 59.06 60.26 61.74 62.42 61.83 61.37 62.10 62.62 63.65 63.71 64.00 64.20 62.71 64.89 65.21 64.11 64.01 64.46
50.60 45.99 50.80 52.21 53.27 53.00 51.73 52.31 45.42 46.76 39.50 38.23 43.27 44.34 46.09 49.64 50.96 56.37 56.62 56.24 56.71 57.11 57.57 58.58 59.32 59.44 59.68 60.51 62.45 63.49 63.41 60.95 62.69 62.39 62.62 62.27 63.33 64.15 63.55 66.43 64.22 63.13 62.90 61.52
52.08 49.89 48.72 51.03 49.72 48.40 49.14 48.47 49.17 49.22 47.01 41.47 40.14 44.44 52.25 51.16 53.84 54.95 58.07 58.31 57.15 57.18 57.47 58.56 59.45 59.51 59.79 60.94 61.62 63.11 63.53 61.86 61.60 62.12 62.54 62.86 62.44 63.79 64.38 63.75 64.42 64.54 64.47 64.55
51.96 49.78 45.65 47.54 51.88 52.89 51.98 49.42 49.97 44.82 43.88 46.12 45.17 45.20 54.07 54.56 55.77 58.05 59.74 58.81 58.21 58.25 58.22 58.98 59.59 59.14 59.02 60.33 60.99 62.06 63.23 61.97 60.30 61.25 62.14 62.88 62.34 63.33 63.88 64.30 64.71 65.77 64.82 64.37
52.00 48.24 43.32 45.11 49.43 52.03 49.09 50.19 50.67 50.79 50.10 45.67 43.55 45.38 54.97 55.75 57.09 58.77 59.58 59.10 57.89 58.14 58.14 58.81 59.43 58.34 58.51 59.92 60.37 61.16 62.71 61.88 59.83 59.57 60.79 62.32 62.32 62.72 63.60 63.95 64.76 65.22 64.43 65.51
54.30 49.73 46.55 43.08 46.18 49.03 47.32 48.23 50.08 49.94 45.94 46.04 46.48 48.04 52.27 54.10 55.46 57.66 59.66 59.70 58.38 57.96 57.50 58.47 59.02 58.68 58.56 59.53 59.82 60.61 62.07 62.14 59.75 59.74 59.54 60.35 62.04 62.25 63.46 64.23 64.65 64.60 64.60 65.03
53.44 47.53 48.19 48.21 48.85 49.39 48.47 47.89 48.59 48.06 49.11 46.08 47.95 48.40 51.31 53.78 55.44 57.10 59.90 59.87 58.26 57.16 57.37 58.32 58.87 58.95 58.68 59.29 60.06 60.67 61.80 61.77 60.65 59.87 59.85 59.88 61.59 62.28 63.16 63.21 64.13 64.72 64.54 64.02
53.18 46.90 48.45 46.45 48.13 48.24 46.67 48.71 49.46 49.25 49.34 49.37 49.65 49.28 54.48 55.82 56.23 57.23 59.27 59.20 58.33 57.82 57.58 58.69 59.29 59.35 58.47 59.14 59.64 60.63 61.36 61.61 61.33 60.61 60.27 60.24 59.74 60.87 61.79 63.27 63.67 64.05 64.03 63.79
50.09 47.85 46.46 42.92 46.93 46.44 44.01 47.24 48.83 50.00 51.22 50.60 47.46 51.26 54.37 54.03 55.75 57.14 59.53 59.48 59.11 59.23 58.89 58.93 59.50 59.94 59.43 59.51 60.46 60.68 61.43 62.27 61.27 60.82 61.06 60.42 59.08 59.17 61.01 61.81 62.05 63.35 63.84 64.50
49.61 48.56 47.97 44.23 45.92 37.76 47.37 51.80 50.88 49.75 50.68 52.33 52.22 52.96 54.21 54.80 57.49 58.59 60.01 60.70 60.47 60.81 60.47 60.20 60.43 61.07 60.88 60.56 61.06 61.63 61.86 61.77 60.83 60.78 60.77 60.75 58.87 58.17 60.13 61.09 62.10 63.24 64.24 64.23
51.87 50.61 45.74 43.27 43.69 45.32 47.77 50.40 49.71 48.67 48.69 52.82 52.93 53.69 54.10 55.81 57.45 57.75 60.48 61.78 62.05 62.71 62.82 62.18 61.84 62.17 62.21 60.72 61.30 61.45 61.26 61.34 60.53 60.07 60.69 60.79 59.49 58.58 59.32 60.09 61.79 63.17 63.54 63.68
47.71 51.04 47.71 45.70 41.71 38.49 47.99 52.37 54.07 53.87 46.51 54.13 54.68 54.94 55.26 55.70 52.70 55.05 60.59 62.03 62.60 63.91 64.15 63.24 62.83 62.49 62.40 61.78 61.51 61.25 60.75 60.78 60.15 60.13 60.55 61.19 60.54 59.33 59.54 60.21 61.72 62.83 62.87 62.39
43.29 44.95 43.80 44.46 43.96 46.55 52.12 53.53 55.32 45.66 48.67 56.08 56.86 56.98 57.05 55.50 57.70 59.74 61.15 62.72 63.40 63.97 63.59 64.41 63.49 62.26 63.13 62.97 61.89 60.53 60.76 60.30 61.12 61.03 60.90 61.51 61.56 60.12 61.17 61.76 61.93 61.76 61.64 61.09
42.71 42.07 42.25 45.30 42.73 40.45 54.25 54.11 49.91 54.36 60.18 58.23 59.07 59.38 58.94 59.88 60.78 61.09 61.99 62.85 63.01 63.50 63.19 63.50 62.88 62.69 63.37 62.93 61.85 60.88 60.43 61.60 61.88 61.34 60.69 61.48 62.20 60.16 60.47 61.92 61.77 61.38 60.83 60.09
42.31 46.00 44.86 46.00 46.31 55.71 56.55 56.00 59.28 59.33 58.00 59.10 59.15 60.99 60.75 60.63 60.64 61.36 61.75 62.66 63.13 63.41 63.58 62.99 63.02 62.90 63.13 63.02 62.57 61.30 61.96 61.85 61.54 61.42 61.02 61.70 62.37 61.16 60.77 61.39 61.12 60.03 60.50 58.65
46.62 49.94 46.75 47.69 50.35 51.94 54.23 57.39 58.93 60.47 60.09 60.27 61.52 62.18 62.11 60.94 61.71 61.79 61.76 62.15 62.35 63.37 63.62 63.28 62.85 62.36 62.13 62.99 62.75 63.62 62.88 62.18 61.18 61.38 61.45 62.07 61.91 61.26 60.35 60.71 60.83 59.61 59.39 58.62
45.90 47.60 46.51 47.67 50.88 52.00 53.17 54.37 56.34 59.37 60.81 60.35 61.19 61.24 61.58 61.50 61.35 61.64 61.67 61.72 62.30 62.66 63.57 63.54 62.63 62.72 62.58 63.01 62.94 63.59 63.19 62.58 61.84 61.54 61.82 61.96 62.18 61.68 60.65 59.99 59.84 59.41 62.34 58.52
46.92 45.78 43.89 44.00 50.50 51.91 53.03 55.78 56.61 57.29 59.60 60.04 60.10 60.36 61.42 61.65 61.13 61.58 61.55 62.49 62.49 62.52 63.53 63.09 63.20 63.20 63.13 63.10 62.92 63.29 63.20 62.89 63.12 62.65 61.39 61.64 61.31 61.64 60.85 59.63 58.92 47.59 47.03 46.34

GFSCGP_sfc_wetblb_015.txt.gz
Wetbulb
54.43 51.82 49.13 51.84 53.54 53.37 52.92 52.09 50.87 53.15 55.11 53.81 53.11 53.20 54.98 56.50 56.16 55.83 56.28 57.59 58.69 59.19 60.31 61.55 62.46 63.24 62.63 62.23 62.84 63.41 63.77 65.52 65.50 65.39 64.91 64.57 65.96 63.67 65.62 64.33 64.91 64.66 65.76 65.58
52.31 49.42 53.19 54.13 53.75 53.13 52.90 51.64 50.80 53.36 55.15 53.92 53.42 52.45 54.59 55.22 55.65 56.25 56.58 57.51 58.56 59.58 59.67 60.45 61.88 62.86 62.68 62.24 60.87 62.96 63.82 65.12 66.43 67.21 67.44 65.87 65.40 64.94 65.33 65.54 65.55 65.22 64.94 65.83
49.61 52.33 54.33 53.19 52.53 51.92 52.34 51.16 51.22 51.31 53.84 54.83 52.92 50.76 52.59 54.97 56.04 56.34 56.93 58.14 59.31 59.84 59.46 60.04 60.98 62.28 62.72 61.71 62.42 62.77 64.04 65.39 67.13 67.32 67.31 67.80 66.85 67.14 66.18 63.47 64.15 65.46 65.18 65.36
51.19 54.12 52.87 52.07 51.78 53.09 50.05 53.65 52.73 51.63 50.73 46.85 52.92 44.63 51.01 53.37 53.24 54.64 55.85 57.59 58.52 59.92 60.51 60.45 60.87 61.86 62.36 61.61 63.26 64.00 64.58 65.43 66.54 67.11 66.35 66.27 65.56 64.24 65.74 65.28 64.16 64.52 65.95 65.30
49.21 51.36 51.85 51.12 52.15 54.13 51.65 54.23 52.81 52.22 50.30 49.82 49.27 46.94 49.83 52.87 51.30 52.73 55.09 56.71 59.47 60.53 60.44 60.06 60.57 62.14 62.04 61.76 63.02 64.39 65.31 64.91 66.04 66.27 66.27 67.44 64.90 65.99 66.49 66.37 62.59 64.92 65.33 65.54
50.68 54.68 53.64 53.25 54.48 54.86 55.20 52.71 52.26 52.01 50.26 44.03 48.03 47.50 47.72 50.18 50.94 52.29 54.86 56.85 59.26 60.03 60.24 60.62 61.68 62.43 61.20 61.69 63.04 64.21 64.95 64.07 65.71 66.23 65.66 65.64 65.08 64.13 62.30 64.72 64.01 64.04 65.19 66.68
49.59 50.54 54.01 54.95 52.76 54.74 53.48 50.85 44.35 42.75 43.55 42.23 49.66 47.29 49.08 52.77 52.73 53.41 54.68 57.03 60.43 60.11 59.95 60.00 60.48 60.65 60.53 60.95 62.06 63.52 64.28 63.34 64.02 65.18 64.84 65.07 65.53 65.27 63.50 64.41 62.79 62.08 64.78 64.96
45.79 44.53 51.60 55.04 53.52 51.46 51.18 50.37 44.76 38.71 41.32 44.64 49.91 44.92 49.50 53.85 54.57 55.43 57.43 59.72 60.89 59.92 59.91 60.17 60.75 60.73 59.93 61.12 61.44 62.55 63.11 62.99 63.74 64.12 64.53 65.08 66.23 66.15 64.22 65.02 63.63 64.64 65.64 65.32
46.73 47.20 52.79 54.23 54.82 54.04 51.08 47.97 51.87 47.39 48.25 45.05 47.32 50.31 53.16 53.60 53.28 55.56 57.39 58.56 59.41 59.59 59.71 59.96 60.81 61.21 60.03 61.19 61.73 62.47 62.86 63.26 63.22 63.73 64.72 64.50 65.71 66.01 64.65 64.96 66.04 64.30 65.46 66.43
51.79 47.00 52.00 52.81 54.86 54.48 52.61 53.42 46.80 47.91 40.80 39.88 45.27 46.80 48.29 50.73 52.22 56.14 57.69 58.27 58.92 59.29 59.34 60.19 60.74 61.07 60.27 61.53 62.64 63.21 63.11 62.31 63.01 63.61 64.01 63.68 65.01 66.21 66.24 65.51 63.66 62.74 63.62 64.32
51.89 51.34 50.19 52.58 51.04 50.03 49.90 48.82 50.55 50.45 48.22 42.91 41.90 45.76 53.74 52.81 53.54 54.46 57.98 59.17 58.87 58.91 59.17 60.01 60.87 61.28 60.36 61.17 62.21 63.20 63.14 61.47 62.69 63.25 63.65 63.62 64.22 65.06 65.01 65.23 64.79 65.43 65.46 62.94
52.99 52.00 48.04 49.38 53.66 54.61 52.88 50.29 51.27 46.26 45.08 47.80 47.25 47.18 55.02 54.92 55.12 56.88 57.79 59.60 59.53 59.65 59.72 60.40 60.84 60.74 59.66 60.64 61.77 62.51 63.14 61.19 61.68 62.76 63.24 62.63 63.74 64.79 65.27 65.34 65.61 65.47 65.58 64.86
53.46 50.41 46.55 48.29 51.06 53.12 50.62 51.35 51.51 52.17 51.70 47.47 44.71 46.54 55.82 56.20 55.42 56.82 57.87 59.59 59.60 59.48 59.75 60.35 60.58 60.05 58.93 60.43 61.05 61.75 62.84 61.53 60.64 60.85 62.59 62.84 62.76 64.02 64.73 65.37 65.20 66.58 66.23 66.24
55.35 52.38 49.02 45.81 48.54 50.66 48.34 49.61 50.92 50.69 47.31 47.18 47.85 49.46 52.96 54.58 54.62 56.48 58.52 59.93 60.43 59.60 59.51 59.99 60.47 59.99 58.92 60.57 60.62 61.29 62.30 62.15 60.19 59.76 60.74 62.24 62.48 63.45 64.30 65.07 65.01 65.13 66.21 65.95
55.02 50.03 50.28 50.52 51.20 50.96 49.98 49.27 49.71 48.92 49.66 47.56 49.48 50.02 52.88 54.80 55.79 56.48 59.19 60.10 59.97 59.42 58.99 59.75 60.36 60.21 59.16 60.23 60.70 61.13 62.21 61.95 60.27 59.55 59.70 61.21 62.75 63.17 63.89 64.89 65.12 64.79 65.06 65.73
56.15 49.76 50.64 48.23 50.15 50.34 48.91 50.24 50.35 49.66 50.20 50.23 50.97 50.97 55.51 56.63 56.78 57.10 57.95 59.79 59.31 59.67 59.32 59.70 60.79 60.69 59.47 59.60 60.27 60.83 62.06 61.68 60.52 59.97 59.49 60.29 61.59 61.78 62.55 64.41 64.70 64.86 64.16 63.81
51.35 50.83 49.14 45.21 48.76 48.25 46.23 49.31 49.94 50.28 50.94 50.88 48.44 52.54 55.74 54.73 55.68 56.56 58.06 59.26 59.55 60.31 60.37 60.09 60.88 61.16 60.37 59.93 61.13 60.94 61.94 62.23 60.77 60.50 60.39 59.53 60.36 60.82 61.91 62.62 63.47 63.70 64.33 64.99
52.34 51.44 49.71 45.82 47.56 40.14 48.89 52.91 52.50 51.42 51.97 53.09 53.01 54.03 55.56 55.94 56.95 57.52 58.21 59.57 60.51 61.11 61.56 61.19 61.56 62.29 61.76 61.17 61.31 62.21 62.29 61.96 60.65 60.54 60.64 59.67 58.76 59.80 61.35 61.67 62.52 64.15 64.62 64.36
54.70 52.93 46.92 44.75 44.83 47.05 48.76 50.82 50.71 49.99 49.87 54.14 53.83 54.86 55.80 56.36 56.92 57.09 59.07 60.17 62.05 62.54 63.13 63.08 62.92 63.48 62.90 61.47 61.53 61.99 61.65 61.72 60.57 60.36 60.74 60.19 58.77 59.13 60.37 61.21 62.84 64.35 64.43 64.85
52.61 53.01 49.91 47.13 42.77 40.08 48.72 52.14 54.35 54.09 47.71 54.29 54.80 54.92 55.31 55.96 51.41 54.54 59.87 60.71 62.07 63.34 63.99 64.22 63.92 63.82 63.98 62.86 62.47 61.79 61.34 61.13 60.49 60.69 61.06 61.20 59.81 59.35 59.97 62.25 63.78 64.67 64.68 64.17
45.89 48.27 45.82 44.57 44.80 47.06 52.44 54.10 55.12 46.36 48.67 57.01 55.81 56.04 56.31 55.25 56.38 59.79 60.66 61.12 62.44 63.70 64.05 65.32 64.80 64.06 65.66 64.60 64.14 61.80 61.34 61.06 61.51 61.38 61.61 61.62 61.25 60.91 61.99 64.45 65.05 64.07 63.25 63.47
44.43 45.05 44.77 46.16 43.29 42.29 55.08 54.14 50.30 54.90 57.57 57.87 57.44 57.84 57.55 58.64 59.06 59.60 60.53 61.40 62.93 63.22 63.88 64.82 64.40 63.88 66.13 64.32 63.04 61.67 62.47 62.50 62.23 61.69 61.10 61.59 61.97 60.69 61.08 63.70 63.70 62.85 63.88 62.96
44.25 48.38 46.95 48.38 48.23 56.28 56.70 56.61 58.72 58.89 57.82 58.13 58.69 59.56 59.66 59.33 59.13 59.67 60.25 62.28 62.52 63.51 64.08 64.78 64.73 64.43 65.02 65.10 63.71 62.86 63.95 62.41 61.98 61.66 61.28 61.94 62.16 60.84 61.74 62.19 62.34 60.67 62.39 60.23
48.22 51.71 49.52 50.27 52.59 54.33 55.84 57.45 59.11 59.06 58.73 59.27 60.31 60.88 60.82 60.29 60.46 60.63 61.47 62.60 63.09 63.80 64.19 64.58 64.63 64.03 64.16 65.32 64.86 64.29 63.34 62.73 61.78 61.82 62.52 62.61 62.45 60.67 62.03 61.76 61.63 60.26 59.61 59.04
46.61 49.62 48.63 49.91 52.21 54.02 55.37 56.92 57.97 58.85 59.98 60.24 61.19 61.66 61.29 61.23 61.17 61.76 62.09 62.54 62.93 64.02 64.50 64.54 64.28 64.37 64.33 65.18 64.74 64.70 64.35 63.35 63.21 64.09 63.45 63.70 62.32 62.24 61.99 62.10 60.98 59.89 62.10 59.33
46.97 46.37 45.29 47.06 52.78 52.98 52.93 56.29 56.99 56.59 57.90 59.45 59.97 60.19 61.12 62.05 61.53 62.46 62.22 63.03 63.36 63.27 64.37 64.50 64.53 64.71 64.87 65.13 64.87 64.91 64.73 64.26 64.85 64.17 63.13 62.10 61.72 61.47 60.15 60.01 60.32 46.89 48.38 46.29

GFSCGP_sfc_wetblb_021.txt.gz
Wetbulb
49.01 43.67 42.46 44.11 46.29 47.85 46.74 46.40 45.95 49.19 52.03 50.22 50.26 50.01 52.49 54.13 53.49 52.64 52.78 53.22 53.19 54.03 56.29 57.79 59.09 59.36 57.66 57.56 57.24 58.67 59.46 60.19 60.58 60.95 60.27 59.89 59.43 60.38 60.76 61.44 61.43 61.54 61.81 62.21
43.29 40.37 45.70 49.72 48.31 48.32 46.95 44.95 44.99 49.05 51.91 51.42 50.48 49.60 52.50 53.38 52.64 52.69 52.94 52.62 52.93 54.32 55.92 57.17 57.98 58.00 56.99 56.60 56.74 58.83 59.21 60.10 61.86 61.32 61.88 61.28 61.67 60.89 60.63 61.02 61.09 61.99 62.00 62.05
41.31 43.55 47.43 49.09 47.44 46.83 47.26 44.96 45.26 46.29 50.21 51.62 49.28 46.78 50.16 53.41 53.36 54.19 53.97 53.00 54.92 54.72 54.65 55.99 57.34 56.84 56.87 57.45 56.54 58.45 59.62 60.84 62.02 61.24 61.26 60.99 60.95 60.29 60.26 60.91 59.93 61.29 62.17 62.29
42.92 46.39 47.09 47.59 46.46 47.88 43.87 49.82 49.08 48.37 46.66 40.55 48.93 37.61 45.82 49.05 49.94 52.31 52.69 50.95 53.62 54.51 55.85 56.29 56.91 56.49 56.57 57.27 56.69 59.64 60.51 61.04 62.06 61.33 60.35 58.53 57.92 57.31 59.02 61.16 59.35 60.29 61.77 62.45
41.95 43.65 43.99 44.46 46.56 49.05 46.33 50.78 49.28 48.85 46.03 43.21 44.59 39.13 42.83 48.22 48.02 49.52 49.73 51.35 53.89 55.16 55.59 56.07 56.76 58.04 58.29 57.85 57.82 59.53 60.11 60.45 61.23 62.35 60.70 59.28 58.23 60.33 59.75 59.20 58.61 59.33 60.49 61.79
45.03 48.31 46.70 45.90 48.13 49.98 51.29 49.02 48.23 48.04 46.73 39.68 42.92 42.27 41.35 44.95 48.87 50.09 52.33 54.59 55.26 54.99 55.59 56.58 58.00 58.50 57.74 57.04 57.64 59.71 59.50 59.21 60.81 61.83 60.25 59.71 59.13 58.21 57.72 58.88 58.41 59.48 60.08 60.49
44.36 44.47 47.41 48.35 44.58 46.97 48.89 44.41 38.26 35.02 36.68 34.02 45.16 41.75 42.09 48.57 50.80 51.18 51.56 53.98 54.46 55.62 55.44 56.06 56.95 56.76 55.37 55.39 57.40 58.54 59.03 58.43 60.01 59.70 60.60 60.55 59.44 58.93 57.94 57.86 58.97 59.05 59.20 60.25
38.52 37.03 44.24 47.64 45.10 43.33 43.88 44.80 39.10 31.10 32.66 36.59 44.93 39.59 44.61 51.79 52.51 52.26 55.78 55.07 55.20 54.61 55.41 55.47 56.44 55.82 55.30 55.87 57.59 57.51 58.92 57.78 59.82 59.78 60.46 61.41 60.37 59.72 59.87 60.14 59.89 59.90 59.70 60.24
38.85 39.49 47.49 47.66 48.45 47.12 44.84 43.18 46.68 40.79 42.02 37.84 41.06 45.55 49.94 50.68 50.17 51.78 54.52 54.88 53.48 54.05 54.51 54.96 55.67 55.29 55.08 55.38 56.39 56.44 58.23 57.55 59.13 59.34 59.97 61.19 60.70 59.91 59.53 60.14 59.94 60.43 60.14 61.89
42.90 38.22 46.26 47.13 48.01 48.10 46.51 48.85 42.46 39.17 33.15 30.57 38.82 41.40 42.54 47.02 47.51 50.68 52.95 53.39 53.38 53.86 54.42 54.79 55.85 54.92 55.11 55.70 55.86 57.22 58.14 57.43 59.04 59.57 59.13 60.95 61.05 61.49 60.67 59.53 59.60 59.25 60.11 60.61
45.68 42.29 43.48 46.48 43.96 42.90 44.36 44.29 45.05 42.99 39.93 33.59 32.58 37.36 47.81 48.25 48.87 51.79 52.72 54.15 53.51 53.20 54.02 54.74 55.43 55.17 55.69 55.78 56.13 57.12 56.79 57.51 57.94 58.24 57.83 60.45 60.78 60.81 61.33 60.40 61.60 61.02 60.65 60.74
46.23 42.10 39.53 43.75 47.88 48.40 47.28 45.45 44.68 41.15 37.88 39.70 38.28 39.25 50.41 50.27 52.60 53.98 54.08 54.96 53.63 53.48 53.55 54.26 55.28 53.96 55.44 55.05 55.84 56.95 56.58 57.35 57.39 58.42 58.03 59.54 60.38 61.00 60.63 60.80 60.91 60.93 61.21 61.02
46.45 42.13 35.97 40.19 44.20 47.09 44.88 48.26 46.88 45.41 42.64 39.79 37.15 38.64 52.11 51.71 51.35 55.12 53.86 54.41 54.88 53.81 53.61 53.95 55.14 53.48 55.11 54.99 56.17 57.19 57.61 56.32 57.74 58.57 56.93 58.56 59.83 60.12 60.55 60.86 62.17 61.16 61.08 61.50
50.75 42.53 40.39 37.58 41.56 45.26 43.24 47.20 47.66 45.05 38.74 40.62 42.96 43.19 47.98 49.54 49.77 51.39 54.02 54.39 54.70 54.58 54.83 54.39 54.95 52.74 54.67 54.80 57.37 57.35 57.40 56.23 56.42 57.99 56.65 56.80 59.10 59.71 59.87 60.53 61.94 62.04 61.35 61.58
45.71 40.92 43.62 44.51 46.88 47.20 46.77 47.57 47.69 45.29 45.07 42.81 44.06 45.07 48.22 49.60 49.72 51.27 54.67 54.79 54.52 53.95 54.77 55.09 54.71 53.47 53.83 53.85 56.11 57.73 57.51 55.44 55.00 57.78 56.70 56.40 59.42 59.60 60.36 59.73 61.50 61.88 60.99 60.10
41.79 41.58 43.60 42.47 46.77 46.47 45.34 48.00 48.35 47.94 47.20 46.23 46.71 45.78 51.33 54.14 52.34 51.98 54.77 55.31 54.84 54.64 55.68 56.19 56.31 54.92 54.45 55.57 55.63 57.71 57.14 55.26 54.53 56.70 56.93 57.83 58.66 59.36 60.18 60.82 59.28 62.27 61.31 58.54
38.61 41.71 41.23 38.12 44.17 44.47 40.87 47.33 47.57 48.11 48.53 47.30 43.54 46.09 49.79 50.54 52.47 52.11 53.16 55.96 55.38 55.62 56.03 56.59 56.95 55.82 54.77 56.25 56.21 56.28 56.62 55.14 54.07 56.57 58.25 58.12 57.64 58.19 59.94 60.49 59.65 58.81 58.11 57.18
38.08 38.23 41.23 39.12 41.11 33.54 44.54 50.00 51.44 49.08 49.41 48.72 48.35 49.87 50.99 51.30 52.64 53.77 53.58 54.87 56.38 56.83 56.56 57.16 57.40 56.52 55.49 56.97 55.67 56.78 57.25 55.36 54.79 55.28 56.95 57.97 57.58 57.89 59.02 59.19 58.98 58.66 59.10 57.70
42.71 40.02 39.34 37.15 37.62 41.97 46.16 49.63 49.19 47.86 46.38 50.67 48.73 50.70 52.24 52.30 52.62 50.75 53.72 57.60 57.39 57.85 57.75 57.98 58.56 57.78 56.37 57.23 57.00 57.73 56.85 55.31 55.03 55.07 55.39 57.23 56.77 56.74 57.25 57.92 58.55 58.31 58.38 58.09
44.91 44.91 41.43 38.78 33.68 34.06 43.58 50.14 52.90 52.75 43.77 50.59 51.07 49.88 49.96 51.00 46.41 48.08 54.37 56.84 58.08 58.84 58.94 58.25 59.18 58.90 57.02 57.14 57.73 57.18 56.60 55.34 54.42 55.06 55.94 56.63 56.14 56.86 56.10 57.82 58.62 58.56 58.91 57.83
40.06 40.92 38.52 37.95 35.59 40.69 48.58 52.33 52.11 41.28 41.88 51.20 51.77 50.83 51.01 48.71 49.56 52.75 55.61 54.96 59.04 59.45 59.35 59.34 60.03 58.30 57.46 57.81 57.98 56.62 56.39 55.86 56.03 56.39 56.60 55.43 55.23 56.71 56.42 58.84 59.17 58.88 59.15 58.43
39.45 38.07 38.96 38.43 37.46 35.29 51.64 50.62 44.71 47.01 50.05 53.35 52.37 53.00 52.00 53.34 54.98 55.44 55.87 56.48 58.78 58.97 59.93 60.05 59.50 58.43 58.22 58.11 58.17 56.72 56.17 57.49 57.66 56.57 56.74 55.59 54.82 58.21 59.10 58.72 58.86 59.03 58.48 57.40
38.92 41.46 37.79 40.78 41.34 49.19 52.67 50.09 51.94 53.60 50.58 53.03 53.74 54.04 55.25 54.78 54.24 55.41 54.31 56.47 58.97 59.13 60.34 60.45 59.79 58.83 58.45 58.32 58.08 57.07 57.17 58.42 58.19 55.94 55.02 56.05 55.92 55.93 59.11 59.09 58.53 57.87 57.49 57.60
41.39 44.21 41.79 42.41 46.86 47.13 50.44 53.90 55.04 54.07 53.78 54.51 54.62 55.79 55.04 54.07 54.43 54.25 55.26 56.48 57.60 58.95 59.38 60.61 60.00 59.06 57.93 58.41 58.30 58.53 59.06 59.47 58.29 55.67 55.72 56.42 54.62 55.72 58.44 59.91 59.50 58.27 56.54 55.87
41.45 42.31 41.34 43.66 46.68 47.10 49.61 50.56 53.31 55.45 55.86 55.98 55.69 56.41 55.64 54.78 54.51 54.71 55.24 57.27 58.45 59.64 59.37 61.14 60.65 59.85 58.86 58.80 58.33 58.73 60.17 59.66 57.37 56.25 57.29 55.94 55.62 56.48 56.66 58.22 58.68 57.73 56.88 55.85
43.30 40.89 40.13 41.71 45.06 44.08 46.33 48.18 53.58 53.54 53.76 53.40 55.31 56.38 57.26 56.69 55.76 55.63 55.15 56.99 57.71 58.75 60.03 60.83 61.00 60.85 60.26 60.00 59.55 59.72 60.21 59.59 57.26 56.97 57.53 56.50 55.59 56.42 57.06 56.59 55.02 42.56 46.00 47.14

GFSCGP_sfc_wetblb_024.txt.gz
Wetbulb
46.10 43.35 40.10 45.18 45.85 45.37 45.20 42.83 42.38 46.29 49.64 48.49 47.68 48.58 50.76 52.30 50.75 50.36 50.70 51.69 52.30 51.77 54.37 56.70 56.85 56.15 55.49 55.55 56.71 57.26 57.83 58.39 59.71 59.55 59.21 58.47 58.21 59.27 59.19 59.85 60.98 60.67 60.84 60.91
41.76 39.01 44.71 46.28 45.59 44.09 43.45 42.45 42.86 46.64 49.16 47.16 47.32 48.08 50.79 52.03 51.69 51.96 52.42 51.41 50.76 52.07 54.62 56.06 55.65 55.02 54.89 54.83 56.15 57.19 57.98 58.63 60.31 59.40 60.05 59.83 58.98 59.70 59.45 59.57 60.02 60.47 60.92 60.94
39.76 43.04 46.20 44.50 45.12 42.87 42.57 42.06 43.59 43.45 46.89 48.01 46.81 45.43 48.49 51.91 53.15 53.09 52.95 52.30 52.64 53.06 53.21 54.87 55.13 54.12 53.98 54.17 56.01 57.05 58.48 59.64 60.56 59.71 59.50 58.81 58.41 58.27 58.09 58.93 58.46 59.25 61.51 61.18
41.19 45.16 45.28 44.11 42.30 45.03 41.10 46.69 46.73 46.13 43.55 38.26 46.98 37.36 43.87 48.09 48.83 50.22 50.96 49.98 51.48 52.79 54.19 55.38 54.46 53.16 54.29 55.02 55.77 58.55 59.00 59.69 60.51 60.30 58.60 56.26 55.80 55.74 56.76 58.52 57.76 58.86 60.54 61.15
39.39 42.25 42.15 41.26 42.16 45.03 44.11 47.79 46.65 46.63 44.16 40.07 43.39 37.83 41.56 45.92 46.19 48.58 48.92 50.59 50.42 52.53 53.70 54.58 54.54 55.21 55.71 54.69 57.08 58.57 58.92 59.54 60.43 59.27 58.90 57.37 56.37 57.20 57.56 57.58 57.79 58.69 58.95 60.18
42.51 46.12 44.54 43.42 45.72 45.93 48.83 46.08 45.47 45.05 42.14 35.53 41.97 39.82 42.50 43.18 47.10 48.02 50.24 50.44 51.92 52.15 53.20 54.73 55.77 55.88 55.29 55.10 57.06 57.89 58.26 58.83 59.67 59.75 58.42 57.45 56.47 56.39 56.66 56.73 57.74 58.54 58.40 59.12
42.18 42.48 45.30 46.28 42.53 45.69 45.93 41.00 33.81 31.11 33.48 33.85 42.79 40.42 43.95 47.21 49.19 49.39 50.76 51.27 51.89 53.43 53.99 54.77 54.95 54.71 54.06 54.74 56.62 57.85 57.38 57.33 58.30 59.50 58.76 58.31 57.64 57.11 56.35 57.27 58.32 58.54 57.86 59.29
36.46 35.37 43.18 46.37 43.49 41.08 41.92 41.62 35.48 28.63 29.91 34.73 42.86 38.37 43.54 48.86 50.87 51.65 53.34 52.96 53.17 53.55 54.05 54.63 55.20 54.46 54.35 54.91 56.06 58.10 56.56 57.04 57.99 59.22 58.90 58.90 58.55 58.19 58.30 58.35 58.42 57.96 58.50 58.80
36.41 37.57 46.14 46.51 46.69 44.93 40.60 37.88 42.76 37.29 38.48 35.00 38.24 42.62 48.00 48.73 50.79 51.99 51.69 52.62 52.48 52.40 52.95 54.53 54.17 53.62 52.35 54.86 55.47 56.67 56.89 55.94 58.06 59.17 59.12 58.60 58.38 57.83 57.35 57.15 58.36 58.12 58.74 61.10
39.82 35.43 44.39 45.73 46.56 45.89 43.12 45.02 37.55 35.33 30.96 29.18 36.33 39.08 40.46 44.35 48.41 50.80 50.70 50.52 52.15 51.71 52.79 54.06 54.64 53.22 52.73 55.10 54.47 56.07 56.90 56.80 57.66 57.71 59.16 59.20 59.40 59.71 58.25 58.70 57.90 58.72 58.98 59.77
42.81 38.39 40.61 44.20 41.28 40.45 39.38 40.06 40.00 40.65 38.01 32.60 31.32 37.68 44.60 45.69 47.52 50.61 51.22 51.79 51.64 52.09 52.92 54.01 54.00 53.64 53.14 53.81 53.54 55.14 55.95 56.64 57.04 57.51 58.31 59.11 59.38 59.67 59.79 60.08 60.44 59.20 58.99 59.90
44.02 37.45 35.75 39.51 43.69 46.14 43.88 40.24 41.68 38.76 35.45 37.50 36.82 37.97 47.57 47.49 49.82 52.48 52.19 52.96 52.36 53.15 53.43 54.03 53.36 52.63 52.87 52.94 53.86 54.64 55.31 55.99 56.47 56.29 58.57 58.53 59.23 59.59 59.16 60.02 58.97 59.28 59.05 59.99
42.09 39.23 32.37 35.66 39.38 43.78 41.62 42.98 43.45 41.69 39.63 37.03 36.92 37.95 48.29 49.73 51.45 52.61 52.20 52.15 52.67 52.52 52.49 52.98 52.29 53.47 53.76 52.91 54.27 54.87 55.32 55.56 56.37 56.62 56.83 58.18 58.60 59.40 58.99 59.08 59.22 60.79 60.90 59.78
42.34 38.70 37.98 34.68 39.18 42.30 39.97 42.40 44.14 43.66 37.48 37.80 41.84 40.61 45.54 47.51 50.03 50.86 51.95 52.44 52.52 53.00 53.54 53.45 52.45 53.25 54.01 54.34 55.03 55.61 55.35 55.64 56.48 55.84 56.05 57.78 57.94 58.82 59.18 59.81 58.92 59.29 60.20 60.22
36.85 34.59 40.45 41.60 43.18 43.73 43.35 43.02 43.87 44.30 43.59 41.85 41.98 42.81 46.05 47.24 50.60 51.98 52.72 52.42 52.25 52.30 53.02 53.73 52.32 52.35 52.96 53.90 54.97 55.99 55.76 54.85 56.13 55.60 54.74 57.55 58.05 58.62 58.77 60.34 60.04 60.20 59.80 60.54
36.75 32.50 39.99 39.32 42.77 42.98 41.45 44.13 44.31 46.05 45.05 43.68 44.83 43.52 48.85 50.44 52.99 52.93 52.97 52.95 52.52 52.88 53.73 54.34 54.03 52.99 52.96 54.73 55.36 56.55 55.61 54.08 56.82 55.69 54.79 57.75 57.85 58.57 59.01 59.24 59.94 59.49 56.91 59.17
33.57 34.54 34.32 35.68 41.67 41.33 37.46 42.13 44.09 46.52 47.69 45.37 41.79 44.55 48.04 48.49 48.99 52.27 52.57 53.43 53.43 53.76 54.36 54.64 54.57 53.45 54.04 54.39 56.30 55.88 55.22 53.54 56.65 55.99 56.21 57.56 57.51 58.07 59.21 58.24 59.62 56.63 55.49 55.38
33.97 33.28 34.04 34.40 37.85 30.65 42.18 46.86 47.64 47.08 47.67 49.23 46.35 47.17 49.62 50.46 52.15 51.90 54.89 54.22 54.28 54.60 55.10 55.46 55.64 54.45 54.63 54.89 55.88 56.39 55.00 53.41 56.25 56.02 56.69 56.44 56.68 57.90 58.43 57.70 57.31 56.25 54.65 54.61
38.15 34.39 32.53 32.63 35.11 38.64 42.16 45.81 45.68 44.52 43.82 48.10 48.52 47.83 49.40 50.01 50.16 48.86 55.81 56.36 55.71 55.65 56.25 56.51 57.05 55.62 54.75 54.83 55.69 56.28 54.14 53.08 55.56 55.97 56.26 56.59 56.10 57.31 57.47 57.44 56.85 56.17 54.86 53.84
38.68 38.00 36.74 35.50 30.51 31.73 40.26 48.25 50.19 49.18 42.08 48.46 49.09 48.33 48.29 48.52 45.94 47.46 53.19 56.83 56.38 56.80 57.06 57.01 57.09 55.65 54.96 55.50 55.99 55.91 53.68 52.89 53.86 55.39 56.17 56.90 55.79 56.37 56.34 56.94 56.51 56.61 55.58 54.61
36.20 36.37 33.54 33.96 33.51 38.20 45.25 48.94 50.86 41.27 42.97 48.44 50.14 49.26 47.87 47.53 49.71 51.25 52.36 56.49 57.30 57.14 56.87 57.25 57.05 55.67 55.38 56.02 56.37 55.48 53.85 52.93 54.25 55.54 55.97 55.98 54.93 55.37 55.24 56.98 56.43 56.93 56.23 55.68
35.53 36.78 35.30 36.03 34.21 32.98 48.27 48.68 43.61 45.84 47.37 50.28 50.19 48.90 48.76 49.86 50.38 51.04 52.68 55.93 56.81 56.82 56.61 57.14 57.25 55.84 55.56 56.60 56.59 55.71 53.90 54.82 54.93 55.29 55.12 54.87 54.31 56.83 56.50 57.21 56.45 56.75 56.41 55.10
33.41 36.33 36.52 38.18 37.87 44.70 47.16 46.14 47.60 50.74 48.17 50.36 50.88 50.50 51.96 50.40 51.74 52.46 53.14 54.47 56.70 57.28 57.18 58.05 57.84 55.70 55.47 56.81 56.97 55.67 56.09 55.65 55.33 54.59 53.78 53.24 54.59 55.70 57.13 57.47 56.35 55.82 55.98 55.16
38.56 41.61 37.82 38.87 42.95 42.59 45.77 46.98 48.06 50.97 51.47 52.56 52.01 53.19 52.00 52.04 52.32 52.35 53.29 54.19 56.90 57.68 57.35 58.36 57.48 55.50 54.84 56.30 56.90 57.08 56.77 57.27 55.87 53.63 53.27 52.92 53.83 54.14 57.09 58.36 58.23 57.30 55.76 55.29
38.91 41.34 38.95 39.65 42.48 43.38 45.49 46.23 46.99 47.23 51.97 54.17 54.29 53.14 53.72 52.59 51.88 52.82 52.73 55.29 56.92 58.24 58.35 58.57 57.42 56.37 55.94 56.38 56.67 56.78 57.75 57.97 56.01 54.01 54.02 53.19 53.69 55.15 56.70 57.66 58.09 58.11 57.65 56.84
42.51 38.96 36.96 37.28 42.99 41.68 43.10 45.82 47.90 46.56 47.23 52.90 54.17 53.71 54.70 54.87 51.90 52.44 53.33 55.91 57.44 58.14 58.60 58.48 58.08 57.27 57.01 56.69 56.59 57.30 58.67 58.08 56.46 54.45 54.53 53.54 53.54 54.90 56.47 56.73 53.29 42.95 48.62 46.93

GFSCGP_sfc_wetblb_027.txt.gz
Wetbulb
42.86 39.88 39.98 43.38 44.90 44.43 42.12 40.66 40.00 44.16 47.17 45.65 44.72 45.40 47.49 50.54 49.81 50.03 49.03 49.41 50.30 50.38 51.67 53.81 54.05 55.03 54.85 55.33 55.61 55.99 57.81 56.94 58.53 57.76 58.00 57.53 56.75 57.71 58.17 58.45 59.65 59.84 60.09 60.37
40.21 37.62 44.17 47.89 46.99 44.41 42.81 40.17 40.37 44.82 47.08 45.23 44.13 44.36 47.79 49.76 49.77 50.93 51.53 49.85 49.48 50.66 52.89 53.59 53.16 54.88 54.73 55.16 55.63 56.52 57.64 57.22 58.65 58.08 58.22 58.51 57.67 58.13 58.31 58.23 59.02 59.37 59.98 59.97
38.14 41.51 45.51 45.76 43.79 43.14 42.79 40.40 41.11 41.17 45.64 45.88 43.62 42.58 45.05 49.37 50.78 51.73 51.86 51.77 51.39 51.28 52.05 52.54 52.97 53.10 53.41 54.14 55.72 56.44 57.55 58.43 59.17 58.40 58.20 56.99 56.77 57.01 56.89 57.15 57.21 57.92 60.14 60.09
38.56 42.76 42.97 42.63 41.78 42.25 38.26 44.15 43.66 42.84 40.59 36.38 43.77 33.67 41.82 45.77 47.84 49.12 50.69 49.64 49.45 50.85 52.63 53.28 52.89 51.78 52.91 53.46 56.18 57.41 58.00 58.95 59.23 58.79 57.23 55.07 54.73 54.45 55.49 56.55 56.73 57.93 59.72 59.89
37.77 40.51 40.62 40.26 41.06 43.36 41.17 45.88 43.73 43.17 40.41 38.17 40.82 36.14 39.59 44.04 44.94 47.12 48.13 48.98 49.11 50.29 52.51 52.71 52.75 53.17 53.47 54.41 56.03 57.55 58.02 58.66 58.46 57.87 57.11 56.21 55.15 55.85 56.17 56.35 56.43 57.09 58.34 59.35
40.15 44.69 43.63 42.55 45.14 45.13 46.39 42.19 42.01 41.93 38.47 33.72 40.00 37.79 37.83 42.09 45.14 46.75 48.88 48.74 49.88 50.52 52.29 52.31 53.08 53.72 53.19 54.11 56.95 57.17 57.48 57.51 58.34 57.75 57.13 56.06 55.33 54.96 55.31 55.61 56.41 56.87 57.45 57.91
38.96 39.92 43.30 45.10 40.85 42.54 42.50 36.29 30.02 28.53 30.14 31.12 41.07 37.34 41.42 45.50 47.60 48.70 48.77 49.02 49.90 51.45 52.20 52.60 52.98 52.82 52.12 55.19 56.34 56.53 56.96 56.38 57.56 57.60 57.55 56.86 56.09 55.23 55.27 56.45 56.39 57.67 57.41 58.07
34.56 32.42 40.65 44.50 42.09 39.63 39.56 38.66 31.61 26.18 28.18 33.00 40.53 35.77 40.91 47.92 49.87 50.32 50.00 49.94 50.97 51.12 52.29 53.08 53.31 53.20 53.18 55.33 56.30 56.47 56.05 55.91 57.46 57.44 57.59 57.46 56.66 56.47 56.51 56.69 56.97 56.89 57.97 58.23
35.09 35.60 43.99 44.77 44.55 43.15 39.13 37.31 42.17 35.16 35.64 32.33 36.17 40.60 45.77 47.68 48.83 49.44 49.58 50.23 50.00 51.19 51.79 52.95 53.15 53.10 53.25 53.73 55.81 56.25 55.41 55.33 57.54 57.72 57.72 57.15 56.90 56.04 55.87 56.37 57.03 57.33 57.65 60.08
38.18 32.91 42.11 44.11 45.15 43.86 39.87 41.86 34.91 33.53 27.89 28.27 34.48 36.76 39.47 43.39 46.66 48.41 48.66 48.70 49.54 50.35 51.44 52.62 53.54 51.92 53.60 53.91 54.65 55.71 55.64 55.74 57.24 57.80 57.67 58.13 57.91 57.83 56.70 56.95 57.19 57.69 58.23 58.16
38.74 36.01 37.93 42.33 39.95 39.10 38.00 37.55 36.14 37.40 34.72 29.92 28.42 34.67 43.44 45.13 47.49 48.30 48.54 49.61 49.58 50.32 51.94 52.91 53.51 52.12 53.28 53.38 53.25 55.11 54.98 56.27 56.07 57.01 57.77 58.05 58.04 58.33 58.08 57.67 58.01 58.37 58.47 58.83
39.37 35.44 32.94 36.87 41.99 45.20 43.04 39.87 37.87 35.58 31.94 35.13 33.91 36.56 45.82 46.90 48.95 50.46 50.50 50.23 50.09 50.91 52.25 53.08 53.06 51.19 51.70 52.39 52.36 54.40 54.65 56.01 56.13 56.71 58.08 57.79 58.19 57.92 57.46 57.38 57.93 58.60 58.83 59.21
39.31 34.36 31.66 32.45 37.69 40.53 40.24 40.66 41.43 37.32 36.67 34.40 35.10 37.56 45.59 46.12 46.16 50.90 49.19 49.91 50.58 50.34 50.93 51.59 50.55 51.67 52.01 52.05 52.94 54.01 54.52 55.56 55.52 55.86 57.99 57.51 57.97 57.56 57.22 56.88 58.06 59.45 59.34 59.23
39.60 34.63 35.43 32.24 35.44 39.32 37.50 40.13 39.47 39.51 34.57 36.31 39.02 38.64 43.60 45.74 47.68 49.05 49.42 50.19 50.44 51.00 52.37 52.10 51.31 52.02 52.41 52.96 53.79 53.85 54.41 54.93 55.31 55.21 57.23 57.04 57.51 57.89 58.02 57.54 57.34 58.91 60.01 59.46
34.87 29.71 36.17 39.74 40.94 40.61 40.81 40.02 40.68 39.37 39.79 37.58 40.36 40.78 44.07 46.32 47.84 49.87 50.78 50.02 50.12 50.48 51.68 52.28 51.59 51.78 51.67 51.52 53.02 54.27 54.62 54.62 55.26 54.40 56.85 57.07 57.43 57.72 59.02 58.53 58.39 59.06 60.25 60.92
35.04 28.84 35.20 36.86 41.24 40.83 39.25 41.39 41.40 41.51 41.77 42.14 42.21 41.10 46.85 48.83 49.78 50.81 51.17 51.23 50.93 51.33 52.49 53.13 52.71 52.47 52.16 53.00 53.53 54.70 54.45 54.55 55.17 53.89 55.93 57.50 57.40 58.15 58.45 58.57 58.23 56.40 57.36 59.91
33.44 31.58 30.35 30.84 40.35 38.73 34.76 39.73 40.75 41.58 44.50 44.18 40.76 44.54 45.93 45.70 50.38 50.88 50.90 51.98 51.98 52.57 53.27 53.58 53.13 52.71 53.22 53.82 54.63 53.76 54.36 54.20 55.15 54.12 55.16 57.65 57.10 57.61 58.39 59.13 57.53 55.89 55.83 55.55
33.89 30.99 31.05 28.36 34.71 27.83 39.91 44.17 44.29 42.36 43.91 46.02 44.56 45.75 48.21 48.73 52.14 53.31 54.15 52.88 52.90 53.45 53.90 54.32 54.35 53.33 53.41 54.78 54.83 54.49 53.78 54.85 55.31 54.30 55.43 57.04 56.56 57.62 57.26 57.87 55.33 54.54 53.16 53.16
37.13 32.24 28.16 29.10 29.83 36.18 40.29 42.63 42.21 40.33 41.19 46.65 47.70 46.36 48.75 50.45 48.29 47.03 54.32 55.17 54.64 54.18 54.92 55.13 55.76 54.37 53.22 54.15 54.99 54.63 52.91 54.41 55.41 54.65 55.06 56.16 55.85 57.33 56.66 56.17 54.30 53.05 52.83 52.17
40.25 35.87 30.96 32.27 27.16 28.11 37.84 44.64 47.25 46.33 39.80 46.55 48.94 46.12 47.49 48.43 45.63 47.08 52.20 55.17 54.89 55.27 55.54 55.23 55.47 54.18 53.33 53.51 54.90 54.40 52.15 53.54 54.78 55.45 55.74 55.78 55.49 57.00 56.60 55.99 54.26 53.57 52.46 52.66
32.25 31.75 28.67 30.61 29.68 36.39 42.60 44.99 47.70 38.71 38.04 46.02 48.43 47.68 46.05 49.09 51.31 51.78 53.19 55.20 55.85 55.45 54.80 54.76 55.05 53.77 53.87 53.91 54.94 54.34 52.40 52.30 55.35 56.44 56.11 54.94 54.83 56.13 56.23 56.07 55.47 54.32 53.17 52.54
31.59 32.74 31.04 32.70 31.51 30.71 44.39 44.32 39.35 41.57 44.87 48.69 47.80 48.58 47.12 50.91 49.47 49.39 53.17 55.07 55.11 54.46 53.89 55.21 54.71 53.93 53.99 54.69 55.30 54.40 52.54 53.74 54.78 55.53 55.41 54.63 53.58 56.73 56.26 56.08 55.49 55.01 53.68 51.82
31.91 35.92 34.33 36.25 37.84 42.15 43.96 42.16 44.64 44.94 43.85 46.20 49.86 49.58 50.40 49.45 48.87 49.63 51.28 54.32 55.23 55.16 55.01 56.13 55.55 53.41 53.85 54.86 56.08 54.54 54.46 53.11 54.04 53.89 53.96 53.16 53.46 54.00 55.32 55.81 54.73 54.50 53.57 52.77
37.49 41.24 37.98 37.84 43.33 42.30 43.50 44.80 45.50 45.97 45.81 46.78 52.00 52.07 49.00 48.85 49.76 50.27 51.15 53.93 55.14 55.48 55.20 55.94 55.48 52.92 53.00 54.94 55.96 56.32 54.52 54.08 54.02 52.96 52.31 51.90 52.83 52.17 54.83 56.48 56.18 55.90 54.47 53.30
36.73 40.61 38.06 37.85 42.74 42.46 43.93 44.14 45.10 45.93 47.33 47.41 48.59 53.41 51.65 49.48 49.97 51.72 51.94 53.98 55.29 55.74 55.93 56.33 55.85 53.83 53.97 55.23 55.70 56.13 55.24 54.76 53.38 52.91 51.96 51.07 53.13 53.25 54.78 56.33 56.29 56.29 56.60 55.60
40.01 38.23 36.46 36.63 42.25 42.28 41.54 44.63 45.94 45.48 45.51 47.02 47.55 52.66 54.09 53.33 50.14 50.02 52.72 55.03 55.94 55.71 56.27 56.28 56.08 55.07 54.93 55.53 55.60 55.69 56.33 55.50 54.09 52.45 51.83 51.20 52.33 53.45 54.95 55.49 52.40 42.80 47.82 46.16

GFSCGP_sfc_wetblb_030.txt.gz
Wetbulb
40.42 37.50 37.59 40.21 42.00 41.26 41.04 38.57 37.62 42.64 45.44 42.71 41.50 42.53 46.12 48.34 47.59 47.71 48.32 49.00 49.61 49.26 50.90 51.33 52.47 54.27 55.79 56.15 56.35 56.16 57.10 57.35 57.86 58.12 58.00 58.06 57.82 58.06 59.30 59.54 60.09 60.61 60.81 61.02
37.63 35.78 41.22 44.18 43.88 42.25 41.02 38.86 38.83 43.29 45.04 42.94 42.53 42.29 45.97 47.28 47.38 48.34 49.48 50.05 49.72 48.79 51.45 51.80 51.56 54.12 55.29 55.68 55.95 56.31 57.27 56.83 58.63 58.10 58.38 58.84 58.18 58.71 59.27 59.46 60.11 59.93 60.63 60.90
36.24 39.21 43.28 43.84 42.95 41.74 41.39 39.82 40.39 40.41 42.87 43.57 41.99 39.98 43.31 47.32 47.76 49.01 50.39 50.84 50.38 50.01 50.53 50.26 51.71 52.98 54.87 55.07 55.43 56.61 57.16 57.96 59.04 58.49 58.30 57.42 57.12 57.52 57.46 58.02 58.78 59.15 60.16 60.99
36.98 41.62 41.53 41.65 41.52 43.11 38.01 44.73 44.25 42.40 38.45 32.77 41.26 31.44 40.77 44.59 45.85 47.65 48.63 47.90 49.28 49.67 51.24 50.73 51.08 52.05 54.17 54.83 55.94 56.69 57.49 58.84 59.08 58.72 57.68 56.27 55.74 55.56 56.44 57.26 58.41 58.74 60.32 60.94
35.30 37.84 38.35 38.89 41.35 44.75 40.74 45.64 44.13 42.04 37.02 33.93 36.74 33.92 38.45 42.34 43.53 45.86 48.03 48.60 47.91 49.20 50.60 50.37 51.36 53.07 53.42 55.02 55.77 57.16 58.29 58.68 58.33 58.48 58.13 56.90 56.12 56.40 57.26 57.44 57.84 58.82 59.49 60.92
38.98 43.86 41.48 41.34 43.73 45.38 45.49 42.30 40.14 38.49 35.53 29.01 36.65 36.08 35.73 39.88 43.67 46.14 47.58 48.78 49.08 50.03 50.41 51.04 52.08 52.67 52.98 54.73 56.33 57.11 57.76 57.77 58.37 57.93 57.77 56.63 56.16 56.32 56.40 57.20 57.82 57.81 58.47 59.75
37.16 38.21 40.79 42.88 39.34 42.06 41.68 35.70 27.34 25.83 26.67 27.55 38.42 35.69 38.93 43.51 46.10 47.84 48.17 47.86 48.80 50.74 50.26 50.93 51.72 52.01 52.24 54.83 56.24 56.65 56.91 56.87 57.76 57.87 57.46 57.07 56.87 56.43 57.42 57.78 57.84 58.73 59.05 59.41
33.32 30.40 39.30 42.64 39.80 37.42 38.57 36.65 29.84 24.69 25.95 31.58 38.57 33.79 38.63 46.37 49.58 49.35 48.90 48.68 49.24 49.84 50.36 51.54 52.00 52.04 53.17 55.50 56.16 56.60 56.33 56.36 57.15 57.56 57.56 57.65 57.72 57.50 57.90 57.94 58.35 58.59 59.03 59.27
32.92 34.26 42.20 43.47 43.69 42.98 37.13 35.14 38.31 33.08 34.97 30.82 34.47 38.14 43.74 46.45 46.88 47.91 48.06 48.86 48.45 49.48 50.15 50.85 51.96 52.22 53.17 55.52 55.84 55.93 55.71 56.18 57.32 57.81 57.69 57.74 58.21 57.47 57.27 58.28 58.82 59.03 59.30 60.65
36.15 31.25 41.01 42.25 43.78 43.23 40.24 41.71 32.81 32.13 27.24 25.84 32.19 34.75 37.67 42.93 45.92 47.94 47.68 47.64 48.10 49.34 50.45 51.35 52.25 52.07 53.59 55.50 55.58 55.64 55.78 56.01 57.70 58.05 58.04 58.59 58.78 58.89 58.18 58.71 58.70 59.00 59.46 59.64
36.83 33.78 35.60 40.44 38.54 36.76 35.20 36.30 34.15 35.26 32.01 27.84 27.30 33.32 41.98 44.50 45.96 47.23 47.60 48.21 48.32 49.47 50.89 51.97 52.39 52.69 53.30 53.79 54.75 55.58 55.32 56.01 57.00 57.97 58.21 58.92 59.20 59.59 59.10 59.37 59.35 59.30 59.70 59.99
36.80 32.85 31.52 36.05 39.84 43.65 41.52 36.29 35.61 34.09 29.11 32.60 32.70 33.90 44.24 45.81 46.51 48.05 48.20 48.80 48.71 49.77 51.24 52.19 52.35 51.07 52.07 52.76 53.31 54.95 55.30 55.84 56.84 57.17 58.49 58.65 58.86 58.75 57.97 59.33 59.63 59.92 59.82 60.33
37.98 31.82 28.07 31.16 35.64 38.90 38.84 38.60 38.85 35.39 33.56 33.78 29.68 32.81 45.00 45.88 46.63 48.11 47.71 48.69 49.25 49.92 50.62 50.94 50.55 51.07 52.19 52.19 52.88 54.12 55.32 55.75 56.63 56.94 58.18 58.33 58.33 58.43 57.78 58.71 59.78 60.23 60.18 59.93
40.71 31.71 31.27 28.95 33.13 36.23 36.15 38.70 39.30 35.07 29.65 33.20 36.89 36.86 42.82 45.35 45.86 46.46 48.09 48.68 48.58 50.11 51.47 51.51 50.73 51.17 51.68 52.74 53.56 54.29 54.86 55.95 55.95 57.02 57.61 57.94 58.28 58.55 58.43 58.42 59.07 60.27 60.38 60.51
37.07 28.13 33.05 34.58 37.71 38.77 37.58 38.89 39.25 37.10 37.77 34.07 37.43 40.18 42.54 45.39 46.25 47.41 48.56 48.46 48.90 49.55 50.93 51.69 51.33 51.26 50.72 51.36 53.08 54.41 54.86 55.34 55.32 56.55 57.35 57.47 58.15 58.87 59.04 59.11 59.27 60.10 60.98 61.45
37.67 27.92 31.77 30.65 38.00 38.97 37.60 38.51 39.88 39.80 39.49 38.54 38.87 38.35 44.86 47.05 48.17 49.09 49.76 49.74 49.83 50.27 51.77 52.40 52.40 52.06 51.25 52.45 53.41 54.29 54.79 54.88 55.23 55.43 57.30 57.81 58.15 58.92 59.33 59.28 58.89 58.43 59.76 61.02
34.74 30.64 27.84 25.33 33.06 34.94 32.78 38.62 38.75 39.46 41.19 40.38 37.47 41.92 44.14 45.55 47.81 48.65 49.17 50.93 51.00 51.44 52.19 52.58 52.71 52.90 52.87 52.97 54.13 53.93 54.39 54.86 55.14 54.81 57.26 57.98 58.16 58.72 59.25 59.60 57.14 57.66 57.32 59.14
34.09 31.99 29.41 25.74 31.31 25.86 37.54 42.55 42.66 39.92 41.04 42.43 42.30 43.19 46.31 47.18 49.31 50.53 52.20 52.19 51.89 52.55 52.94 53.49 53.83 53.41 53.72 53.51 54.12 54.60 54.16 55.03 55.07 54.37 56.39 57.76 57.93 58.36 58.70 58.51 56.74 56.02 55.19 56.84
37.67 34.54 27.17 26.01 28.89 33.85 37.91 40.22 39.42 37.45 38.87 42.76 42.95 45.17 46.25 48.16 48.69 48.85 52.46 54.19 53.90 53.70 54.27 54.64 55.21 53.98 53.37 53.51 54.08 54.74 53.59 54.71 55.07 54.87 55.56 57.49 57.43 57.78 57.82 57.47 55.76 54.93 54.63 55.12
37.88 37.04 31.05 29.65 28.73 26.51 36.01 41.71 44.84 43.58 34.81 42.31 44.36 44.97 45.20 46.96 44.71 47.89 51.24 53.46 53.63 53.76 54.70 54.36 54.83 53.34 53.27 54.02 54.41 54.15 53.57 53.99 54.54 55.31 55.82 57.30 57.22 57.76 57.72 56.84 54.85 54.79 54.77 54.87
31.92 32.79 28.70 28.95 26.64 33.01 41.12 42.65 44.35 34.20 33.53 41.99 43.25 45.01 46.24 46.01 49.38 53.25 52.47 53.95 55.30 54.30 53.90 54.26 54.57 53.12 53.31 54.27 54.82 53.69 53.37 53.83 55.76 56.33 56.28 56.31 56.93 57.69 57.60 56.39 55.58 54.52 54.40 54.16
31.98 31.55 28.86 30.37 28.16 29.27 43.45 41.83 35.68 39.24 41.88 43.43 43.92 44.08 45.46 48.02 51.14 50.42 52.07 54.29 54.03 53.11 53.01 54.54 54.04 53.36 53.25 54.59 55.32 53.92 52.87 55.29 55.61 56.06 56.06 55.60 55.60 58.25 57.31 56.76 55.92 54.64 54.02 53.04
31.78 35.56 33.57 35.44 36.42 41.56 42.84 42.63 43.52 42.93 42.14 43.48 43.75 45.37 45.80 50.32 48.77 49.61 51.31 52.52 54.16 53.94 54.38 55.06 54.50 52.83 52.90 54.47 55.81 54.32 54.44 54.17 55.21 55.31 55.06 54.38 55.03 56.55 57.10 56.63 55.54 54.52 53.61 52.82
37.67 40.45 36.67 37.23 41.15 41.66 42.43 45.41 44.19 44.51 43.89 44.93 45.52 46.45 49.21 50.58 49.77 48.85 50.31 52.33 53.61 54.20 54.28 54.98 53.99 52.25 51.99 54.07 55.74 55.88 54.22 54.84 55.25 54.35 54.09 53.39 54.35 54.12 56.33 57.01 56.85 55.91 54.20 53.26
36.57 39.45 38.56 37.65 40.62 41.37 43.78 43.29 44.41 45.03 45.68 45.04 46.02 46.69 51.56 52.19 48.14 48.95 49.57 52.30 53.87 54.28 54.57 55.12 54.32 53.21 53.34 54.42 55.30 55.51 54.70 54.79 54.18 53.96 53.74 53.26 54.27 54.29 55.39 57.00 56.70 57.17 57.04 55.00
39.42 37.40 36.34 35.39 39.98 40.26 41.04 44.47 45.47 44.50 43.94 44.82 45.17 45.96 48.32 52.07 52.01 50.05 50.07 52.68 54.41 54.12 54.58 54.84 54.85 54.02 54.02 54.67 55.26 55.06 54.97 54.88 54.06 52.74 52.42 52.47 53.34 54.10 55.21 55.54 54.05 42.93 48.03 46.55

GFSCGP_sfc_wetblb_033.txt.gz
Wetbulb
44.11 41.02 40.52 42.46 44.84 45.99 46.42 44.34 43.94 45.99 47.30 46.20 46.91 47.63 49.63 52.17 52.53 52.68 53.82 54.82 56.14 57.44 60.31 58.48 58.20 59.59 60.59 61.91 62.52 63.83 63.62 64.52 64.18 64.13 64.08 64.68 64.09 65.02 65.45 65.88 66.31 65.71 65.83 65.59
40.12 38.55 44.02 46.32 45.71 43.49 43.04 42.13 42.57 45.22 47.31 46.67 46.92 46.54 49.93 51.14 51.34 52.93 53.66 54.45 55.94 57.67 58.45 57.22 56.97 58.78 60.33 61.03 62.30 63.13 63.99 64.25 64.75 65.11 65.68 66.31 66.05 65.61 65.81 66.07 66.05 65.68 64.84 65.43
39.81 42.03 44.12 43.63 43.85 41.69 42.05 41.63 42.20 42.32 46.44 47.82 46.41 45.14 47.53 50.83 52.28 52.80 54.74 56.10 57.17 57.67 57.74 57.01 56.76 58.62 60.01 60.80 62.21 63.21 64.08 64.51 65.34 65.86 65.27 65.42 64.50 64.55 63.94 64.35 65.06 65.18 64.42 65.11
40.94 44.50 42.48 41.84 41.47 43.59 39.94 44.97 44.03 43.24 42.08 40.04 46.51 38.60 45.93 48.07 48.78 52.20 54.76 56.46 56.91 56.10 57.16 57.21 57.38 58.18 59.60 61.17 63.05 63.78 64.28 64.75 65.79 65.69 65.18 64.88 63.62 62.90 64.08 64.46 64.96 64.54 64.62 64.64
38.88 40.40 40.50 40.19 41.50 44.78 42.49 46.81 44.65 43.84 42.67 42.57 42.93 39.65 44.44 48.06 46.67 49.34 52.71 56.12 56.78 56.27 57.20 56.88 57.44 58.80 60.40 61.55 62.41 63.65 64.46 65.54 65.55 65.67 65.53 64.40 63.47 64.01 64.43 64.61 63.61 64.47 65.68 64.99
42.36 44.58 43.02 42.94 44.53 45.51 47.17 45.39 45.17 44.97 43.28 36.48 41.71 40.37 41.76 45.05 46.88 49.96 53.38 55.80 55.32 56.24 56.31 56.75 58.25 59.56 60.36 61.80 62.47 63.49 64.31 65.10 65.23 65.12 64.92 64.06 63.36 62.82 63.40 63.79 64.19 63.73 64.24 64.85
40.30 40.65 43.42 44.16 42.15 45.62 45.79 42.97 36.37 34.48 35.00 35.44 43.50 40.42 41.78 48.34 50.60 52.16 53.33 55.48 55.76 56.77 56.23 56.34 57.17 58.54 59.62 60.74 62.01 63.27 64.25 64.19 64.92 64.60 64.07 63.30 63.36 62.92 62.97 63.35 63.83 61.36 61.91 64.29
35.96 33.88 41.11 43.49 42.21 41.62 42.98 43.17 38.33 32.04 34.16 36.75 42.35 37.51 41.59 50.49 52.10 53.59 54.70 56.13 56.21 56.42 56.68 56.66 57.86 58.86 59.50 60.89 62.18 62.93 63.49 63.79 64.36 64.42 63.55 63.60 63.14 64.15 64.18 63.78 64.01 63.60 63.57 65.02
36.86 37.33 44.16 43.49 44.91 44.46 42.16 39.85 45.13 40.24 40.88 38.33 40.54 43.60 49.15 51.56 52.14 53.19 53.59 54.77 55.66 56.40 56.43 56.74 57.81 58.88 60.03 60.96 62.52 62.96 63.28 63.78 63.90 64.16 63.83 63.67 63.83 63.75 63.33 63.75 65.09 64.97 65.40 65.29
39.68 35.71 43.13 43.50 44.50 45.76 44.46 46.11 37.69 40.11 33.21 31.55 37.94 41.06 42.50 48.57 50.44 53.25 53.94 54.68 55.29 56.24 56.35 56.69 57.64 58.79 60.26 61.75 62.83 63.08 63.59 63.55 63.98 64.23 64.18 64.01 64.58 64.65 63.47 64.64 64.06 64.47 65.34 65.18
40.94 39.68 40.40 43.25 40.79 40.44 41.23 40.87 42.11 42.37 40.49 35.08 33.45 39.04 51.04 51.16 52.82 53.70 55.56 56.31 55.31 55.99 56.38 56.92 58.01 59.11 60.51 62.03 62.04 62.51 62.63 62.77 63.59 63.80 64.11 64.10 64.75 64.26 63.73 64.20 64.61 64.76 65.29 64.88
39.55 39.00 37.10 39.86 44.64 45.86 43.89 42.65 42.82 37.86 36.15 39.37 39.62 39.74 49.98 52.88 52.99 54.58 55.57 55.36 55.93 56.98 57.28 57.76 58.49 58.95 59.70 60.89 61.46 61.90 62.60 62.61 63.67 63.70 64.11 64.09 64.16 63.34 63.56 64.33 64.47 64.89 64.71 64.82
38.44 37.57 34.11 37.21 41.34 44.02 42.06 43.27 44.13 44.29 43.66 38.63 36.43 39.84 50.14 51.39 52.53 54.20 55.41 54.89 55.05 56.35 57.05 57.83 58.44 58.32 58.88 60.27 60.71 61.57 62.31 62.66 63.07 63.17 63.82 64.11 63.79 63.21 63.60 63.83 64.33 64.91 64.96 64.36
39.86 36.41 35.69 35.19 37.66 41.87 39.60 41.44 43.19 42.92 39.29 39.37 39.54 41.66 47.75 50.29 51.19 53.32 54.64 55.80 55.59 56.57 56.97 57.51 57.79 58.56 59.35 60.04 60.30 61.02 61.96 62.82 62.83 62.64 63.51 63.92 63.96 63.45 63.44 63.90 64.44 64.54 64.88 64.27
38.08 32.17 35.54 37.35 38.06 39.19 40.41 41.17 41.54 40.57 41.99 39.10 40.99 41.89 46.60 49.97 50.48 53.93 55.63 55.70 55.17 56.14 56.72 57.41 57.76 58.64 59.31 59.68 60.19 60.81 61.81 62.22 62.70 62.50 62.85 63.66 64.15 64.18 63.85 64.03 64.25 65.07 64.84 64.32
38.48 32.61 35.19 35.14 39.91 40.07 39.02 41.75 42.48 42.24 42.39 42.47 43.40 43.56 49.96 51.31 53.17 53.85 55.07 54.87 55.36 56.35 57.24 57.81 58.30 58.84 58.91 59.55 59.82 60.43 61.08 61.82 62.37 62.17 62.54 63.38 63.44 63.49 64.11 64.21 64.10 64.30 64.45 62.98
36.06 34.64 33.17 33.88 37.57 38.30 36.37 41.28 42.57 43.06 44.10 43.77 41.04 45.25 48.97 49.69 51.68 53.81 56.19 55.93 56.47 57.19 57.78 58.03 58.38 58.99 59.50 59.97 60.44 60.27 61.02 62.25 61.78 61.64 62.38 62.91 63.22 63.34 63.28 63.23 62.60 63.76 64.13 63.86
36.19 34.97 35.12 32.09 36.19 29.89 41.82 47.02 46.60 44.39 45.08 46.30 46.22 47.52 49.11 49.76 52.32 55.33 57.47 58.15 57.70 58.26 58.46 59.17 59.28 59.73 60.52 60.99 60.99 61.60 61.48 61.39 61.18 61.05 61.75 62.64 62.81 63.43 63.96 62.33 62.61 62.70 63.87 63.69
39.33 36.93 33.60 30.62 34.08 38.96 42.37 43.07 42.25 43.57 42.34 45.41 46.80 49.12 50.01 51.75 52.75 53.46 56.83 59.34 59.54 60.02 60.27 60.62 60.95 60.76 60.86 60.48 61.20 60.93 60.62 61.12 60.81 60.62 61.12 62.25 63.06 63.50 63.72 61.98 62.41 61.93 62.69 62.90
39.42 39.12 35.07 34.06 30.48 31.93 39.89 44.24 46.58 46.29 40.08 45.50 45.93 46.67 47.66 50.82 46.32 49.95 57.26 58.87 59.99 60.75 61.47 60.67 61.06 61.03 60.61 60.73 61.23 60.55 60.06 60.54 60.40 60.95 61.19 62.49 63.18 63.42 63.74 63.16 61.82 61.97 62.86 62.18
33.40 34.56 31.41 32.46 32.15 36.90 43.64 45.31 46.84 39.21 39.46 45.55 46.32 47.08 47.45 47.19 52.79 56.56 55.15 59.24 61.15 61.00 61.04 61.29 60.68 60.27 60.79 60.91 60.64 60.20 60.28 59.85 61.48 61.97 61.95 62.28 63.00 63.76 64.40 63.79 62.17 62.04 62.22 61.75
33.85 32.42 31.20 33.21 31.36 32.26 45.57 45.15 40.47 43.29 46.21 46.41 46.96 47.60 47.58 49.47 51.02 52.66 54.96 56.86 60.17 59.65 59.91 60.31 59.56 59.88 60.78 60.66 60.58 60.25 59.98 61.36 62.10 62.01 61.53 61.87 62.69 63.31 63.38 63.35 61.73 61.45 61.90 61.01
33.07 37.07 36.15 36.53 38.40 42.08 45.40 44.70 47.61 47.33 46.07 46.73 47.09 48.36 48.85 49.75 52.40 54.82 56.25 57.16 59.30 59.83 59.80 60.41 60.18 59.72 59.98 60.55 61.19 60.78 61.31 61.51 61.45 61.48 61.45 61.60 62.26 63.12 63.32 63.11 61.40 60.34 60.94 59.93
37.85 40.78 38.00 38.72 40.85 41.17 43.19 45.23 46.71 47.16 47.41 48.10 48.93 48.96 49.97 49.85 52.22 55.65 57.41 57.75 58.09 60.03 59.58 60.43 60.23 59.18 58.50 60.34 61.02 62.69 61.81 61.41 61.21 60.99 61.28 61.46 61.14 61.71 63.20 62.86 62.10 60.81 59.91 59.22
36.57 38.59 38.56 37.98 40.49 41.32 44.53 44.25 44.91 45.85 48.27 48.72 49.55 49.90 50.38 50.97 51.93 54.63 56.66 56.82 57.64 59.94 60.07 60.45 60.25 60.01 59.24 59.87 60.55 62.09 61.48 61.20 61.26 61.54 61.10 60.71 60.79 60.64 62.25 62.98 62.62 61.73 62.24 59.76
39.65 37.92 36.58 36.88 40.88 39.75 40.65 44.33 45.93 45.69 46.73 48.84 48.39 49.14 51.05 52.06 53.19 55.11 57.03 56.48 57.97 59.49 60.16 59.72 60.37 60.20 60.09 59.65 60.24 61.20 61.16 61.24 62.11 60.76 60.48 60.12 60.10 59.99 60.82 61.58 60.69 43.60 48.81 47.50

GFSCGP_sfc_wetblb_036.txt.gz
Wetbulb
47.64 43.77 43.08 46.39 48.56 49.79 49.83 49.47 48.96 51.05 53.31 51.49 51.10 51.46 53.26 55.29 55.91 56.25 57.10 57.32 57.58 59.72 61.67 63.42 63.92 64.09 64.44 65.62 66.21 66.82 66.63 68.07 67.57 67.01 65.88 65.67 65.69 66.94 67.15 67.83 68.43 68.65 68.10 67.28
45.44 41.87 46.89 48.60 49.10 48.15 48.28 47.78 48.50 51.38 53.15 52.60 50.50 50.29 54.12 55.63 56.06 56.81 56.47 56.97 58.29 60.30 61.99 62.92 63.12 63.19 64.55 65.22 66.35 66.87 67.28 67.99 67.76 67.07 67.22 67.35 67.46 67.43 67.48 68.33 68.32 68.43 67.78 67.70
43.50 44.91 47.20 46.95 47.22 46.36 46.70 46.47 47.52 47.81 50.99 52.07 49.75 47.96 51.09 54.83 56.37 56.77 56.97 57.40 57.60 59.95 61.60 62.76 62.14 63.38 64.35 64.87 65.91 66.47 67.48 67.81 68.25 68.36 68.12 67.73 67.97 67.24 66.28 66.58 66.69 67.43 67.09 67.14
44.36 47.95 46.36 45.25 44.61 46.95 43.96 48.47 47.33 46.48 45.75 42.66 49.62 43.28 50.07 53.14 53.90 55.27 56.19 56.69 58.12 60.82 61.64 62.61 62.81 63.26 64.12 64.88 66.17 67.17 67.54 67.88 68.08 68.79 67.56 67.15 65.23 64.41 67.34 66.55 67.93 67.04 67.05 66.85
42.71 44.30 45.14 44.80 44.94 47.03 45.33 47.78 47.36 46.95 45.55 45.58 45.92 43.90 48.18 52.74 51.24 53.83 55.63 56.58 58.75 61.00 61.83 62.25 62.77 63.30 64.36 65.16 65.77 66.89 67.52 67.57 68.28 68.56 68.16 66.73 65.74 66.53 66.66 66.73 66.08 67.23 67.54 67.08
44.87 48.13 46.93 46.86 47.62 47.52 48.39 46.38 47.42 47.63 46.04 40.20 44.95 44.71 45.70 49.91 52.14 54.45 55.89 55.96 59.42 61.36 61.77 62.48 63.32 63.72 64.17 65.21 65.86 66.42 66.85 67.44 68.22 67.96 67.81 66.47 65.91 65.70 65.47 65.80 65.62 67.20 68.02 67.33
43.30 43.97 46.60 47.62 45.53 47.43 46.78 44.96 39.98 38.58 39.43 38.77 47.46 45.49 46.68 52.62 53.74 53.95 54.31 56.69 60.49 61.53 61.70 61.62 62.06 62.74 63.45 64.11 65.13 65.78 66.33 66.35 67.46 67.14 66.84 66.19 66.53 66.00 65.58 64.96 66.11 65.16 65.16 66.89
37.73 37.21 43.90 46.57 45.46 44.36 44.91 45.67 40.88 35.22 38.12 41.60 47.46 43.01 47.52 53.24 55.13 55.85 55.99 56.65 60.65 61.47 62.08 62.10 62.48 63.10 63.40 64.01 64.91 65.28 65.69 65.67 66.47 66.60 66.21 66.36 66.57 66.64 66.41 66.40 66.50 66.04 66.27 67.32
38.44 39.82 46.77 46.71 47.41 47.62 44.73 43.44 48.66 45.37 46.74 42.14 46.22 48.46 50.01 52.53 53.28 54.00 55.80 56.15 59.36 61.15 61.70 61.86 62.67 63.40 63.42 64.38 65.06 65.30 65.16 65.21 65.93 66.35 66.31 66.35 66.83 66.63 66.12 66.29 67.73 67.47 67.59 67.00
41.61 37.23 46.33 45.87 47.42 48.03 47.79 49.02 43.13 44.60 38.04 36.97 42.70 43.98 43.90 49.89 51.96 53.58 55.39 57.30 60.01 61.47 61.53 61.92 62.57 62.97 64.08 64.85 65.66 65.52 65.04 65.36 65.73 66.36 66.40 66.78 66.55 67.22 67.08 66.90 66.09 67.01 66.85 66.24
43.25 40.96 43.54 46.02 43.70 43.50 44.77 44.96 46.32 46.82 44.84 39.93 39.06 42.04 50.27 52.15 53.09 54.71 57.38 58.99 60.83 61.05 61.18 61.74 62.30 63.38 64.25 65.01 64.98 64.44 64.80 65.09 65.56 65.83 66.50 66.61 67.17 66.79 66.23 66.16 66.70 66.61 66.63 66.74
42.06 41.88 39.26 42.82 47.29 48.64 47.45 45.93 46.59 41.96 40.90 44.15 43.82 42.51 52.36 54.81 56.00 57.32 57.72 59.61 61.15 61.72 61.65 62.02 62.34 63.18 63.69 64.41 64.15 63.68 64.44 64.54 65.43 65.70 66.20 66.33 66.54 66.60 65.88 65.69 66.32 66.84 66.02 66.53
38.78 40.09 36.34 40.15 44.77 46.65 45.19 46.65 47.74 48.06 48.21 43.18 40.52 42.34 51.14 55.19 55.68 57.66 58.96 59.83 60.48 61.20 61.39 61.78 62.06 62.48 63.21 63.87 63.26 62.88 63.85 64.02 65.28 65.24 65.82 66.34 65.83 66.07 65.95 65.88 66.15 66.31 66.17 66.37
41.06 37.21 39.29 38.76 41.46 44.75 42.82 44.66 46.77 46.56 42.89 43.88 43.37 43.47 48.94 53.36 55.19 57.06 58.98 59.80 60.38 61.00 61.19 61.72 61.93 62.32 63.21 63.77 62.75 62.44 63.19 64.23 64.60 64.80 65.34 65.83 65.64 65.74 66.03 66.07 66.08 65.99 65.99 65.07
41.08 35.77 40.83 42.34 42.93 42.72 44.37 44.10 44.84 44.48 45.54 43.09 44.73 44.57 47.13 53.03 54.53 56.52 58.02 59.78 59.89 60.71 60.98 61.42 61.74 62.26 62.96 63.34 62.48 62.61 63.14 63.74 64.44 64.18 64.38 65.80 66.26 66.26 65.99 65.97 66.18 65.77 65.97 64.89
41.68 36.46 39.26 39.20 42.54 42.90 41.58 44.26 45.39 45.26 45.82 45.86 45.90 45.52 50.07 52.65 53.77 53.06 57.32 59.12 59.40 60.52 61.08 61.62 62.22 62.52 62.97 63.00 62.02 62.37 62.69 63.31 64.24 63.88 63.86 65.58 65.69 65.63 65.73 65.69 66.03 65.77 65.37 64.94
38.12 37.72 37.29 36.19 41.93 42.17 39.10 43.71 44.95 45.67 46.98 46.66 43.61 48.07 51.33 51.40 52.59 53.54 56.34 58.54 59.46 61.04 61.67 61.99 62.29 62.92 63.60 63.28 62.86 62.33 62.72 63.64 63.45 63.34 63.88 64.59 65.27 64.91 65.47 65.06 64.87 65.59 65.64 64.94
37.19 38.01 38.72 37.40 40.63 32.24 45.42 50.11 48.57 46.74 47.50 48.29 47.53 49.85 51.51 52.33 53.75 55.25 56.90 58.90 60.29 61.73 62.39 63.11 63.25 63.80 64.41 64.14 63.34 63.52 63.40 63.00 62.58 62.83 63.22 64.11 64.68 64.56 65.41 64.31 64.35 65.83 65.84 65.16
41.39 38.75 35.98 36.21 37.35 41.57 44.75 47.04 47.18 46.64 45.56 49.01 49.93 51.52 52.82 53.74 54.89 54.80 56.86 57.66 60.46 62.92 63.96 64.44 64.73 64.86 65.09 64.07 63.75 63.14 62.69 62.49 61.76 62.20 62.78 63.37 64.47 64.97 64.76 63.69 64.22 65.44 65.80 65.08
42.11 39.61 35.77 36.33 34.74 33.79 42.79 47.62 49.74 50.12 43.76 49.18 49.80 50.30 51.49 53.21 48.83 52.24 59.80 60.74 61.15 63.09 64.70 64.93 65.07 65.21 65.08 64.63 64.18 63.18 62.32 61.93 61.28 61.84 62.52 63.34 64.78 65.52 65.17 64.45 64.17 65.39 65.78 65.15
35.38 36.19 32.22 34.50 36.29 40.41 46.30 48.75 50.07 41.40 43.11 49.75 50.65 51.34 51.98 51.69 54.84 57.27 58.80 59.45 61.36 63.25 64.60 66.03 65.55 64.71 65.19 65.34 64.45 62.54 62.24 61.81 62.25 62.22 62.91 63.34 64.93 65.72 66.60 65.56 64.94 65.02 64.40 65.12
34.89 33.03 32.69 34.07 33.10 34.51 47.83 48.38 44.79 46.14 50.14 50.72 51.53 52.40 52.14 53.97 55.42 56.70 58.22 59.71 60.52 61.83 63.62 65.10 64.72 64.85 65.79 65.44 64.47 62.62 62.02 63.31 63.05 62.61 62.37 63.03 64.09 65.08 66.04 65.81 64.76 64.11 64.23 63.80
35.21 38.51 38.27 38.67 38.26 43.10 46.85 46.59 49.96 50.59 50.14 50.85 51.35 52.79 53.45 53.78 55.24 56.88 57.77 60.47 62.13 61.49 63.50 64.76 64.86 64.92 65.58 65.41 64.76 63.21 63.13 63.47 63.04 62.88 62.60 63.14 63.82 64.28 65.96 65.62 64.25 63.16 63.42 62.06
40.67 43.03 40.04 42.00 40.94 41.74 43.98 48.71 49.62 50.40 50.48 51.78 53.00 53.40 54.27 54.10 55.99 57.02 58.52 60.27 62.30 61.92 63.00 64.39 64.43 64.42 64.46 65.12 64.96 64.89 64.20 63.44 62.99 62.96 63.05 63.21 63.11 63.06 65.11 65.64 64.60 63.20 62.02 60.49
37.67 38.27 37.32 40.83 43.57 43.56 44.91 47.14 48.36 49.36 50.77 51.35 53.24 53.59 53.75 54.93 56.07 57.77 59.19 60.07 61.83 62.00 63.31 64.01 63.91 64.43 64.52 64.97 64.91 65.41 64.99 63.48 62.99 63.35 63.46 63.53 63.07 63.02 63.65 64.80 64.70 63.92 64.80 60.44
41.57 38.46 36.88 37.13 43.95 42.83 43.43 46.27 48.19 47.50 48.89 49.40 51.62 52.52 54.46 55.16 55.92 57.86 60.31 61.67 62.13 61.28 62.92 63.44 64.29 64.72 64.87 64.82 64.71 65.27 65.46 64.21 63.53 62.99 63.21 63.28 62.64 62.55 62.75 62.95 63.28 43.64 48.40 49.50

GFSCGP_sfc_wetblb_042.txt.gz
Wetbulb
47.33 44.11 42.15 44.60 46.91 47.52 48.13 47.82 46.66 50.61 52.96 51.82 51.96 52.36 54.71 57.29 57.60 57.33 58.26 58.15 59.11 60.37 62.51 64.46 65.44 71.03 69.45 70.35 71.80 72.56 71.85 73.15 71.66 70.82 69.00 68.22 67.00 68.54 68.62 69.77 70.58 69.90 69.77 69.01
43.94 41.99 46.70 47.71 47.44 46.51 46.50 46.18 46.61 50.15 51.56 51.37 51.68 51.93 55.47 56.89 57.01 57.80 57.97 58.36 59.04 60.37 62.18 64.09 67.23 68.84 69.09 69.94 71.10 71.04 71.02 72.56 70.90 70.34 69.13 68.54 68.13 67.88 68.04 69.76 69.93 69.89 68.72 69.28
41.39 43.96 47.75 46.95 45.54 45.02 45.88 45.16 46.46 46.44 49.33 51.33 50.99 49.87 52.98 55.70 57.40 58.24 58.74 59.39 60.21 59.95 59.09 61.56 66.41 67.66 68.09 68.20 69.04 69.49 70.60 70.77 70.56 71.06 69.63 71.82 71.37 69.75 68.57 68.42 67.97 68.79 68.62 68.60
42.51 46.64 44.72 45.49 44.69 45.61 43.32 47.73 47.00 46.91 46.15 43.64 50.42 42.73 50.95 53.66 54.95 56.91 57.84 58.60 58.83 59.29 60.56 63.54 65.96 66.67 67.53 67.57 68.84 69.39 70.07 69.84 70.34 71.88 70.42 70.16 67.68 65.85 68.40 68.92 68.29 68.40 68.77 67.39
38.69 42.27 43.73 42.50 45.24 47.35 44.86 48.05 47.48 46.97 46.04 46.55 46.38 44.38 47.68 52.79 52.13 54.44 56.68 58.03 59.00 59.68 62.12 62.66 66.03 66.65 67.23 68.01 68.15 69.05 69.64 69.21 70.62 70.93 70.59 69.33 68.99 68.49 68.48 68.58 67.64 68.66 68.31 67.65
40.91 44.80 44.15 45.66 46.67 47.16 49.08 46.69 46.52 47.08 46.41 40.94 45.94 44.91 45.06 48.70 51.65 53.33 55.88 56.80 58.07 59.87 61.30 65.04 66.44 66.84 66.72 67.46 67.77 68.60 68.43 68.84 69.68 70.05 70.83 70.46 68.97 68.65 67.68 67.58 67.13 67.22 66.64 67.53
40.99 40.75 43.17 45.04 43.76 47.09 46.28 45.73 39.26 37.97 38.73 38.53 46.95 44.73 46.81 51.75 54.01 54.87 55.43 57.18 58.82 60.90 61.66 64.54 64.97 65.06 65.68 66.18 67.16 67.63 67.74 67.75 68.64 69.08 69.28 68.80 69.28 69.23 68.53 67.92 67.37 66.87 66.51 66.02
34.52 34.64 40.39 44.08 43.36 43.49 44.48 45.42 40.15 33.41 35.95 39.68 45.61 41.82 46.29 53.45 55.71 56.76 57.19 58.60 59.91 61.18 63.96 64.41 64.75 65.08 65.25 66.18 66.69 66.58 67.22 67.18 67.90 67.94 68.09 68.85 69.40 67.44 68.37 68.57 66.92 67.75 67.87 67.28
33.73 36.16 45.15 43.64 45.57 46.02 44.35 41.84 47.48 43.01 44.08 40.77 44.08 47.79 51.39 53.91 54.98 56.05 56.84 58.59 60.07 62.96 63.63 63.84 64.75 65.17 65.36 65.78 66.37 66.84 67.15 67.14 67.14 67.51 67.94 68.06 68.62 68.92 68.33 67.95 68.14 68.07 68.28 68.04
37.51 32.35 42.39 45.44 44.45 45.79 45.63 47.97 41.41 43.88 35.79 35.84 41.81 44.66 46.49 52.29 54.01 55.49 56.38 57.89 59.80 63.20 63.41 63.92 64.59 65.08 65.73 66.11 67.07 67.77 67.69 66.79 66.70 67.10 67.05 67.18 67.29 66.81 67.81 67.99 66.81 68.30 67.71 67.35
40.24 36.86 37.74 43.76 41.46 41.09 43.76 42.57 44.78 46.24 43.96 38.80 38.07 43.01 55.06 53.91 54.63 55.41 57.10 57.69 59.95 62.75 62.99 63.67 64.35 65.36 65.88 66.22 66.46 66.91 66.85 65.84 66.11 66.31 67.37 67.21 67.24 67.07 67.26 67.28 67.36 67.53 67.32 67.19
41.17 37.30 35.01 38.83 45.66 46.11 46.94 44.48 45.35 41.78 40.84 43.85 43.60 44.27 55.80 55.73 55.33 57.12 57.20 57.91 61.61 63.14 63.38 63.96 64.30 64.70 65.06 65.47 65.69 66.16 65.48 65.08 65.72 66.03 66.61 65.82 65.25 66.78 67.23 66.08 66.80 66.32 66.20 66.19
40.35 37.09 32.55 36.17 41.54 45.79 43.94 45.96 47.26 47.59 48.87 43.70 41.04 44.32 55.32 54.38 55.37 56.67 57.90 57.13 61.83 62.24 63.02 63.63 63.56 63.99 64.61 65.01 64.99 64.44 64.92 64.86 65.14 65.50 65.85 65.75 65.79 66.95 66.62 67.02 67.09 67.03 66.83 65.54
42.25 36.99 34.40 31.73 36.07 39.20 39.46 44.66 46.38 46.62 42.99 43.87 45.26 46.88 50.45 52.99 54.95 56.72 58.64 61.05 61.74 62.07 62.92 62.71 62.89 64.01 64.59 64.96 64.23 63.73 64.01 65.05 64.95 65.34 65.79 64.60 64.30 66.10 66.66 66.99 67.02 66.59 66.48 65.66
40.56 32.59 35.83 37.41 38.16 38.44 38.74 40.32 45.04 44.96 47.21 43.98 46.88 48.22 50.60 54.37 56.58 59.00 61.47 61.94 61.05 61.35 61.87 62.51 62.91 63.96 64.40 64.37 63.53 63.37 63.66 64.60 64.85 64.78 65.25 64.98 64.54 66.25 66.11 66.39 66.42 66.62 66.01 65.75
40.02 33.39 36.78 34.81 38.36 36.93 35.61 40.17 43.96 46.39 46.71 48.26 48.98 49.16 53.58 55.39 55.77 58.66 59.88 60.27 60.55 60.61 61.73 62.74 63.34 64.13 64.28 63.98 62.58 63.15 63.46 64.21 64.72 64.68 64.65 65.44 64.99 64.91 64.42 66.08 66.15 65.77 65.14 65.22
37.65 36.30 36.02 32.15 37.53 36.10 33.35 41.37 44.61 47.30 48.97 49.20 46.89 51.34 54.47 52.97 53.73 56.74 59.73 60.72 60.94 61.44 61.94 62.30 63.59 63.84 64.68 63.81 63.33 62.99 63.71 64.23 63.92 64.31 64.99 65.00 64.31 64.01 64.91 65.03 65.62 65.38 65.24 64.87
38.42 36.52 36.67 33.24 35.18 25.42 39.47 50.02 49.29 47.44 49.07 51.84 51.33 51.12 52.66 53.31 55.29 56.22 59.15 60.44 61.43 62.25 62.33 63.30 64.10 64.79 65.63 64.55 63.76 63.85 64.09 63.56 63.07 63.97 63.98 64.54 64.66 64.22 64.63 64.81 65.10 65.50 65.35 64.27
42.84 37.82 35.69 32.94 32.63 35.57 40.70 47.06 47.46 46.11 46.76 51.58 52.09 52.62 52.14 54.35 57.33 57.28 59.31 60.25 61.91 64.34 64.26 64.37 65.36 65.83 66.14 64.34 64.13 63.78 63.14 63.00 62.54 62.93 63.84 64.04 64.81 63.97 63.83 64.78 65.32 65.37 63.45 63.24
42.44 41.68 36.69 35.13 31.33 30.16 40.50 47.36 51.66 52.25 43.50 52.23 53.67 53.47 54.09 54.73 50.90 54.16 58.99 59.60 60.94 62.79 65.35 64.74 65.79 66.27 66.13 64.89 64.45 63.52 62.57 62.54 61.74 62.84 63.71 64.45 65.27 64.53 63.70 64.67 65.55 65.99 63.86 62.83
36.16 36.64 34.47 34.41 33.79 37.46 42.45 48.16 52.14 42.02 41.64 52.59 53.74 53.71 53.46 52.01 54.40 58.14 59.86 60.33 61.66 62.79 64.41 66.27 66.16 65.69 66.55 65.43 64.52 63.16 62.53 61.99 62.63 63.79 64.21 64.83 65.66 65.18 64.77 65.60 66.24 65.61 64.07 63.65
36.13 34.89 35.33 37.29 34.05 31.98 44.37 46.80 42.56 45.83 51.30 52.66 53.69 53.88 53.70 55.01 56.52 57.94 58.97 60.09 60.55 61.64 63.55 66.16 66.01 66.48 66.73 65.53 64.31 63.07 62.93 63.38 63.03 63.68 63.75 64.52 65.71 64.56 64.99 65.07 65.94 64.94 64.59 62.25
34.84 36.84 35.06 37.46 37.12 43.22 46.13 45.83 48.28 49.68 49.72 51.63 52.63 54.13 54.75 54.86 55.94 57.60 58.58 59.97 60.71 62.05 63.43 64.92 66.04 66.71 66.68 65.46 64.58 63.33 64.31 63.77 62.55 63.26 63.89 64.80 66.49 65.55 65.63 64.02 65.02 64.22 64.60 61.87
39.94 43.40 39.09 39.50 40.98 44.12 45.45 47.88 49.46 50.06 50.02 52.18 52.99 53.24 55.04 54.55 56.15 57.22 58.57 59.90 61.25 61.78 62.89 64.61 66.36 66.15 65.82 65.64 64.91 65.08 64.61 63.77 62.51 63.30 64.07 64.61 65.38 64.92 65.06 64.18 63.45 62.22 63.83 62.93
40.26 42.10 39.91 39.65 42.30 44.37 45.14 46.49 48.46 50.10 50.78 51.48 52.59 52.83 53.71 55.37 55.90 56.89 58.00 59.72 61.78 62.64 63.60 64.68 65.84 66.25 66.30 66.33 65.33 65.45 64.23 63.88 62.83 63.32 63.84 63.69 64.63 65.34 65.12 64.12 62.31 62.24 63.37 62.11
41.91 39.68 37.13 36.76 43.67 43.35 43.80 47.08 48.28 48.51 49.60 51.63 51.38 51.53 53.69 55.14 55.80 56.96 57.63 60.18 62.29 63.56 63.94 64.74 65.97 66.87 66.78 66.65 65.82 65.40 64.48 63.95 63.83 62.88 63.12 63.04 63.01 63.66 64.98 63.55 61.16 43.30 47.46 44.60

GFSCGP_sfc_wetblb_045.txt.gz
Wetbulb
41.52 37.67 36.45 39.44 42.06 43.42 44.23 43.73 43.15 46.25 49.53 48.31 47.39 47.74 49.85 52.73 52.43 52.73 53.94 54.07 54.46 54.90 56.58 57.72 59.29 60.47 62.64 64.43 66.54 66.15 67.45 67.86 69.18 68.09 65.70 63.53 63.09 62.87 62.77 64.16 64.58 65.58 65.63 65.63
40.12 35.10 41.15 44.34 43.86 42.80 42.47 40.57 41.05 45.95 49.06 47.58 47.16 47.04 50.55 52.16 52.25 53.36 53.95 53.59 54.65 54.43 56.57 58.39 59.46 62.45 62.44 63.92 64.78 65.21 67.30 67.41 67.06 66.64 64.74 63.94 63.37 62.77 63.26 63.69 64.50 64.38 64.22 64.61
37.51 39.97 44.19 43.48 42.52 41.60 41.32 40.24 40.45 40.88 45.87 47.30 45.54 43.06 45.87 50.11 52.54 53.96 54.88 54.84 54.91 54.90 54.73 55.42 61.00 61.23 62.24 63.56 63.83 64.48 66.74 66.39 65.98 65.31 64.89 64.74 63.90 63.29 62.32 62.59 63.25 63.64 64.62 65.05
36.40 41.76 42.92 41.28 40.49 42.85 38.02 44.57 44.14 43.77 41.87 37.31 44.15 35.72 43.65 47.51 49.61 51.91 53.46 53.03 53.88 55.06 55.92 55.26 60.98 61.24 62.03 62.92 64.07 65.58 65.94 65.41 65.68 64.36 63.64 62.15 60.87 59.04 60.29 61.37 62.42 64.12 64.56 64.32
34.86 37.47 38.15 39.28 40.76 44.00 40.85 45.51 43.71 43.46 41.18 39.86 40.86 36.37 42.63 47.16 47.09 49.15 51.78 53.70 54.35 55.06 54.43 54.71 61.15 62.77 62.94 63.82 63.80 65.09 65.21 64.43 65.13 63.99 64.29 63.07 61.91 61.96 61.48 62.16 62.02 62.90 63.30 63.40
38.04 41.93 39.88 38.87 41.72 44.58 45.12 43.46 42.72 41.92 39.59 33.36 39.11 38.86 40.09 43.04 46.11 48.03 51.16 52.43 53.35 52.93 54.58 60.80 62.57 63.26 63.28 64.15 64.59 64.72 64.25 63.90 64.34 64.51 64.03 62.28 60.94 61.33 61.31 61.06 61.05 61.62 61.57 62.41
38.27 38.85 41.85 42.40 37.71 40.77 41.16 37.48 30.48 29.85 31.18 31.20 40.46 38.96 41.99 45.63 48.94 50.46 50.87 52.32 52.73 53.87 57.13 61.04 61.49 61.94 62.54 63.26 64.19 64.03 63.63 63.52 63.57 64.28 63.20 62.34 62.00 61.48 61.12 60.71 60.52 60.91 61.07 61.14
31.62 30.55 40.50 44.35 38.86 35.79 36.75 37.61 31.78 25.42 28.60 32.54 40.81 36.88 40.79 48.59 51.30 52.06 52.98 52.43 53.01 53.22 60.24 60.65 61.21 61.57 62.42 63.50 63.63 63.31 63.61 63.26 63.42 62.87 62.39 62.15 62.87 61.59 61.65 61.54 61.66 61.65 61.57 61.68
31.13 31.52 41.61 41.45 42.09 40.18 36.35 33.76 40.59 35.10 37.76 33.44 36.63 41.36 45.53 47.85 48.45 50.38 51.24 52.45 56.32 57.81 59.97 60.29 60.93 61.69 62.74 62.87 62.56 62.98 63.40 63.11 63.34 62.70 62.00 61.94 62.20 62.18 61.46 61.96 62.13 61.93 62.71 63.58
36.38 28.83 38.08 39.68 42.65 43.90 40.79 41.04 34.12 35.86 28.15 27.73 35.37 38.04 38.82 44.43 47.31 49.47 50.96 51.82 56.80 58.96 59.47 60.17 60.57 61.37 62.54 63.08 62.62 63.15 63.38 62.81 62.39 62.20 61.83 61.88 61.39 62.29 61.86 61.91 61.66 63.12 62.88 63.09
36.59 32.85 33.41 38.69 36.31 36.61 37.47 35.42 36.26 36.43 36.29 31.26 30.81 35.31 45.13 48.83 50.16 49.04 51.34 52.57 57.78 58.32 59.36 60.12 60.82 61.87 62.53 62.83 63.31 63.09 62.71 61.93 61.57 61.26 61.30 62.20 62.04 61.87 61.80 61.41 62.28 62.80 62.21 63.13
38.17 33.85 29.51 32.94 40.56 43.07 41.19 38.12 37.18 32.64 32.26 37.09 35.29 36.78 46.84 49.47 49.64 51.50 51.92 53.00 58.33 59.06 59.91 60.45 61.15 61.72 61.87 61.59 62.82 62.12 61.14 60.90 61.32 61.49 61.87 62.09 62.91 61.90 61.57 61.70 62.17 62.97 62.03 62.63
36.99 31.55 26.67 30.13 35.51 40.54 38.51 41.72 40.86 39.39 39.22 35.61 34.26 37.39 47.98 50.55 50.11 51.64 50.56 54.25 58.67 59.08 59.57 60.27 60.69 60.96 61.30 61.69 62.18 61.10 60.50 60.53 61.14 62.25 62.00 63.14 62.44 61.55 61.21 61.56 62.07 62.36 62.06 62.04
40.72 32.25 30.80 25.80 30.88 36.33 34.17 36.17 39.39 37.04 35.56 36.85 38.61 39.88 44.31 49.23 49.74 51.31 51.02 57.79 58.55 59.24 59.54 60.11 60.08 60.76 61.36 61.79 61.43 60.80 59.92 60.91 60.59 61.81 61.20 63.06 62.81 61.61 61.56 61.25 61.69 62.06 62.11 61.52
38.99 31.11 32.57 33.45 35.50 36.90 36.03 35.24 36.96 34.75 36.12 35.77 40.40 41.99 44.74 48.57 50.42 53.31 56.52 57.99 57.97 58.61 59.33 59.52 59.78 60.60 60.72 60.44 59.91 60.32 59.89 60.57 60.71 61.69 62.89 62.42 63.15 62.05 61.92 61.84 61.41 61.98 61.99 61.59
39.21 30.80 34.03 32.46 36.72 37.54 35.03 36.65 37.20 37.28 38.00 39.40 42.50 42.38 51.16 51.68 54.56 56.59 57.24 57.85 57.89 58.46 59.18 59.80 60.76 61.03 60.76 60.32 59.55 59.70 59.45 60.29 60.51 61.99 62.64 61.57 63.43 63.55 61.59 61.79 61.53 61.30 61.19 61.31
35.57 33.87 33.57 29.76 37.09 34.87 29.83 34.46 36.50 38.01 40.93 41.84 40.39 46.99 50.14 50.16 52.28 53.80 56.82 57.54 57.94 58.77 59.51 60.19 60.80 61.08 61.03 59.59 59.52 57.68 59.51 60.01 60.48 61.69 62.46 62.65 63.15 62.79 62.63 62.81 61.63 60.77 59.87 60.09
35.19 34.11 34.92 32.11 34.49 25.62 36.29 42.64 45.70 44.22 46.58 47.90 48.69 50.12 50.66 53.03 53.64 54.30 55.41 55.65 57.96 59.21 60.08 60.47 61.10 60.77 60.61 59.32 59.23 58.44 60.10 59.46 59.79 61.43 62.51 62.72 62.42 61.63 62.88 61.48 61.27 60.12 61.09 59.53
38.86 36.25 33.74 31.76 31.12 35.35 37.76 41.78 41.88 42.86 44.68 49.77 49.87 50.25 51.66 54.79 54.49 52.97 55.88 57.00 57.01 58.29 60.63 61.11 61.87 61.66 60.24 59.40 59.71 59.52 59.18 58.76 58.85 60.10 61.74 62.12 62.84 61.77 61.78 61.18 60.28 59.84 60.54 59.11
39.71 39.69 34.41 32.96 29.61 28.93 36.83 42.05 46.42 47.54 39.42 50.26 50.89 50.76 50.74 52.94 45.81 48.87 54.87 56.34 57.19 58.21 60.45 61.54 62.55 61.89 59.63 59.32 59.61 58.75 58.11 57.73 57.40 59.29 60.60 62.66 62.47 62.30 61.88 61.23 60.58 59.98 59.42 59.61
34.61 34.82 31.68 32.31 32.08 34.07 40.24 43.25 48.31 38.98 40.68 48.22 51.23 50.93 49.29 48.63 49.61 52.62 54.80 56.03 57.40 58.25 60.04 62.48 62.64 61.42 59.98 59.94 59.45 57.74 57.52 56.80 58.14 60.43 60.65 61.33 62.23 61.18 62.03 61.32 61.02 59.91 59.67 60.07
32.75 32.90 33.20 33.68 32.25 29.88 43.12 43.08 40.04 43.36 47.12 49.63 49.16 49.86 50.47 51.88 52.67 53.99 56.01 56.53 58.11 58.18 59.57 61.45 61.93 61.41 60.72 60.15 59.63 57.42 56.92 58.42 58.60 60.00 60.50 61.64 60.83 61.76 61.08 61.67 60.49 60.72 59.37 60.06
32.60 36.56 34.15 32.88 33.21 43.33 43.66 43.60 47.56 47.89 46.71 47.94 48.51 49.70 51.13 50.91 51.77 53.99 55.23 56.39 57.48 58.86 58.98 61.46 62.04 61.46 60.65 60.31 60.04 57.69 57.92 58.79 58.29 58.91 60.88 61.19 61.03 60.99 60.08 60.93 60.91 60.36 58.53 58.21
39.30 41.58 37.98 38.19 40.45 42.83 43.82 45.82 46.11 46.43 46.32 49.74 49.59 49.89 50.36 49.40 52.09 53.09 55.14 55.84 57.33 58.34 60.28 61.21 61.69 61.01 60.05 60.43 60.24 59.61 60.06 59.45 58.25 58.69 61.08 61.39 61.12 59.97 59.47 60.94 61.88 60.80 58.74 58.15
39.25 40.24 36.01 38.78 40.87 42.51 43.48 44.62 45.48 46.23 48.38 48.88 50.17 49.52 49.65 49.74 50.41 53.08 54.69 55.38 56.79 58.63 60.10 60.84 62.32 61.31 60.85 60.82 60.66 60.89 60.86 58.98 58.21 59.72 60.76 61.56 61.58 61.04 59.32 58.29 56.84 61.17 61.02 59.58
40.74 37.64 35.90 34.99 39.91 40.45 41.54 44.54 46.77 46.72 46.75 48.75 48.00 48.77 49.87 50.04 50.41 53.70 54.27 55.48 56.30 57.18 58.73 59.76 60.04 63.00 62.21 61.42 61.19 61.41 61.15 59.13 59.55 59.32 60.27 61.00 61.61 61.33 60.38 55.34 52.50 43.37 43.78 47.36

GFSCGP_sfc_wetblb_048.txt.gz
Wetbulb
39.79 34.19 33.89 37.43 40.38 41.55 42.28 41.25 40.10 43.70 47.54 46.40 45.45 46.01 48.92 51.02 50.13 50.48 51.99 52.54 53.05 54.29 55.90 57.07 57.56 57.19 61.08 61.17 60.23 63.42 65.46 65.83 67.25 66.49 63.59 62.57 61.51 61.15 61.88 62.67 64.05 64.79 64.47 65.07
36.41 32.81 38.89 41.43 41.82 40.40 39.73 38.05 37.78 41.73 45.32 45.43 45.20 44.84 48.39 50.25 50.38 50.89 51.45 51.69 51.64 52.17 54.07 55.53 55.66 58.83 61.06 62.80 63.24 64.80 65.50 66.17 66.20 65.08 63.27 62.38 62.16 61.36 61.50 62.20 62.36 64.34 64.45 64.49
35.46 38.22 42.98 39.82 39.14 38.65 38.50 37.19 38.02 38.50 42.50 43.59 41.89 39.94 42.80 47.20 48.36 49.87 50.89 52.59 52.66 52.53 53.71 54.34 55.96 58.92 61.25 62.42 63.01 65.26 65.70 65.77 65.44 64.38 63.39 62.51 62.10 61.78 61.06 61.38 61.53 62.55 63.50 63.55
33.96 38.25 38.31 39.43 36.65 39.39 34.89 41.86 41.22 40.45 38.92 34.01 42.21 32.79 40.86 44.72 46.18 48.01 49.12 49.97 51.15 53.11 54.04 54.25 56.07 58.80 61.02 61.68 63.19 65.36 65.32 65.44 64.86 63.74 62.97 61.58 59.98 58.62 59.15 60.25 61.16 61.83 63.57 63.48
33.17 34.82 35.44 35.95 38.27 41.49 37.29 42.83 41.56 41.21 38.00 37.04 38.13 33.32 39.80 42.47 43.44 45.76 48.05 50.23 51.89 53.02 52.76 53.41 56.63 60.11 61.19 62.31 64.03 64.79 64.15 64.04 63.22 62.86 62.23 60.79 59.01 59.24 60.16 60.52 60.74 61.48 61.99 63.06
36.51 40.03 38.01 36.69 39.41 39.66 40.85 39.94 39.58 39.37 35.60 30.03 35.78 34.85 37.28 40.30 42.86 44.95 47.72 50.03 51.77 52.04 52.04 53.55 59.35 61.31 61.63 63.27 64.07 64.00 62.99 62.74 62.85 62.61 62.07 60.67 59.97 59.75 59.75 59.57 60.20 60.32 60.51 61.06
36.80 36.58 39.28 40.73 35.90 38.30 36.21 30.74 25.96 24.33 26.37 28.62 37.93 35.14 38.45 42.34 45.10 46.12 46.81 48.85 50.63 51.06 55.70 58.73 60.11 60.71 61.83 62.86 63.06 62.78 62.58 61.35 62.76 62.09 61.47 61.09 60.30 60.40 59.70 59.23 59.70 59.29 59.48 59.90
31.17 28.28 39.39 43.26 38.38 32.95 32.78 31.75 26.51 21.53 23.50 29.49 37.98 32.57 37.98 45.50 48.08 48.54 49.35 50.52 51.29 48.10 57.00 59.04 60.32 61.26 62.02 62.72 62.53 62.56 62.41 60.99 61.86 60.96 60.49 61.21 60.45 59.91 60.05 60.09 60.12 59.92 59.83 60.27
29.74 30.52 39.71 40.13 40.53 38.46 33.93 30.46 34.45 29.73 33.62 28.33 33.76 37.98 43.33 45.85 46.05 47.24 47.54 48.74 48.93 52.26 57.21 59.04 59.81 61.20 62.35 62.36 61.89 62.70 61.88 61.26 61.03 60.90 60.70 60.68 60.72 59.84 60.10 60.45 60.75 61.09 60.37 61.86
34.50 27.40 37.07 38.85 40.80 39.81 37.24 38.79 28.71 28.48 23.56 23.70 30.77 34.05 36.36 40.84 43.16 45.73 46.04 47.06 52.69 56.34 57.82 58.82 60.08 61.52 62.21 61.95 62.39 62.41 62.06 61.50 60.87 60.44 60.25 60.63 60.50 60.85 60.46 60.29 60.21 61.18 61.04 62.05
34.94 31.28 32.19 36.68 34.74 33.28 34.48 32.39 32.73 31.44 30.23 27.91 25.97 31.77 40.70 42.27 43.99 45.28 48.26 49.12 55.70 57.00 58.14 58.99 60.50 61.45 61.64 61.77 62.55 62.15 61.84 60.99 60.34 59.91 59.60 59.87 60.25 60.89 60.52 60.38 61.09 61.27 61.00 61.36
35.42 32.10 28.24 31.01 37.46 39.62 38.22 34.99 34.06 26.81 27.16 31.06 33.04 33.35 45.04 43.86 44.98 47.31 48.08 55.56 56.90 58.19 58.43 59.37 60.43 60.86 61.06 61.39 61.87 61.68 60.87 60.64 59.42 59.76 60.29 60.27 60.47 60.18 59.73 60.43 61.05 61.39 60.90 61.35
37.11 29.34 24.31 25.52 32.09 38.70 35.97 39.02 37.04 34.82 32.06 30.61 28.44 32.98 44.68 45.22 46.71 48.03 48.05 55.54 56.80 57.44 58.10 59.22 59.93 60.26 61.01 61.47 62.10 61.38 60.35 60.41 59.32 60.41 60.49 60.47 60.22 60.02 59.70 60.09 60.79 61.13 60.98 60.96
40.60 32.74 28.06 21.84 27.98 34.40 31.65 35.61 37.06 34.42 30.15 31.37 33.57 35.64 41.63 44.19 45.18 47.07 51.05 55.86 56.82 57.70 58.46 59.01 59.54 60.08 61.07 61.86 61.81 60.54 59.70 60.40 59.59 60.54 60.60 61.97 60.64 59.96 60.00 59.99 60.51 60.94 61.13 60.68
36.76 30.38 33.28 32.75 33.97 34.55 33.56 33.96 35.90 34.26 34.75 31.31 35.66 35.18 39.60 42.55 45.34 47.26 51.73 56.28 56.84 57.15 57.99 58.73 59.01 59.70 60.70 60.83 60.84 60.43 60.13 59.71 60.09 61.77 62.11 61.94 62.38 60.34 60.57 60.62 60.49 60.98 60.77 60.75
37.75 32.10 35.12 31.40 34.75 34.96 33.30 36.41 36.80 36.89 36.72 36.36 36.92 36.44 44.50 46.39 51.91 52.82 54.91 56.56 56.50 57.39 58.33 59.16 59.67 60.02 60.39 60.28 59.78 59.62 59.73 59.03 60.71 61.16 62.07 61.21 61.53 60.82 60.59 60.30 60.01 60.25 59.97 59.84
33.36 31.26 31.53 27.70 34.59 34.74 30.28 35.21 36.63 36.79 39.30 38.40 33.82 39.60 45.27 50.37 52.26 51.86 53.65 57.02 57.11 57.84 58.59 59.31 59.79 60.13 60.38 60.21 59.76 58.33 59.41 59.04 60.65 61.07 62.17 62.33 61.99 61.11 60.88 61.02 60.16 59.67 58.48 58.43
32.65 31.86 33.12 27.92 32.14 24.45 35.50 43.48 44.18 42.03 44.81 47.15 45.23 44.68 46.82 51.10 51.42 53.80 55.25 55.43 57.71 58.44 58.90 59.95 60.39 60.45 60.33 60.00 58.93 58.23 59.02 60.12 60.74 60.90 61.96 62.26 60.81 60.96 61.06 60.37 59.32 58.47 58.39 58.04
37.50 34.68 30.61 29.50 30.62 34.50 37.64 38.70 39.54 40.55 42.10 47.76 45.29 50.23 51.08 52.21 52.44 52.11 54.91 56.75 55.79 59.15 59.82 60.85 61.49 60.78 59.52 58.80 57.80 58.83 58.45 59.74 60.46 60.37 62.01 61.00 60.50 60.82 60.26 59.61 58.47 58.36 59.08 57.24
37.99 37.41 33.23 31.16 27.97 26.95 34.50 38.05 42.03 43.88 38.58 46.39 46.41 47.17 50.40 50.61 46.05 49.42 53.62 55.92 56.90 59.67 60.66 61.19 61.18 60.26 58.62 58.54 58.49 58.48 57.64 57.94 59.32 60.45 61.38 61.47 61.57 60.95 60.03 59.12 58.32 58.12 57.82 57.74
34.73 34.08 30.68 30.43 29.71 33.75 38.97 39.75 44.67 37.65 37.15 45.21 47.26 47.90 49.12 48.76 51.45 53.21 54.74 56.08 57.93 58.39 60.24 61.72 60.97 59.17 58.88 58.32 58.68 57.75 57.23 56.34 57.86 60.76 61.63 60.45 61.04 60.83 60.36 59.04 58.32 57.94 58.37 57.96
31.78 31.02 32.13 32.14 31.55 28.29 40.68 40.11 36.97 40.81 45.10 45.40 46.87 48.22 47.93 49.04 51.25 53.30 54.02 55.47 57.54 58.11 60.14 61.39 60.06 58.72 58.31 58.78 58.73 57.25 56.63 57.88 57.24 59.39 60.36 59.58 60.32 62.04 61.43 59.76 58.36 58.56 58.24 58.94
32.86 35.81 32.86 31.79 31.79 39.41 41.60 41.16 45.27 45.87 44.70 45.35 46.73 48.37 48.90 47.56 48.42 51.91 53.02 55.41 57.27 59.05 59.17 60.43 59.24 57.62 58.13 58.68 58.97 57.07 57.88 56.97 56.90 58.86 59.35 59.06 59.55 60.81 60.70 59.22 58.44 58.04 57.20 59.48
37.39 40.33 35.50 35.06 39.31 40.07 42.68 44.87 45.43 46.20 45.76 47.08 48.34 48.53 48.91 47.29 48.91 50.10 52.70 53.49 55.28 57.60 59.60 60.93 59.44 57.54 56.51 57.88 58.52 58.63 57.96 58.04 58.27 59.14 58.71 58.76 58.36 58.50 59.81 60.23 59.80 58.65 57.28 57.20
38.12 38.49 36.22 36.22 39.54 40.90 42.07 43.23 45.12 46.36 47.50 47.70 48.36 48.06 47.91 47.58 48.43 49.87 52.15 53.32 54.59 56.75 58.67 60.47 60.81 58.97 58.03 57.87 57.79 58.16 59.00 57.29 57.92 59.22 59.03 58.67 58.62 58.88 59.18 59.52 58.49 58.97 58.61 58.42
38.63 38.17 35.30 34.50 40.20 40.80 40.56 43.75 45.98 45.83 46.60 47.46 47.65 47.61 48.41 47.54 47.50 50.15 51.84 53.11 54.42 56.87 58.24 58.70 60.18 60.32 59.74 58.95 58.02 59.24 59.25 57.63 58.45 58.86 59.62 59.17 58.53 57.96 58.38 55.27 51.30 41.93 45.46 48.75